ASY52 WSSS-VAPO

Flight info

Callsign ASY52
Flight time 6h 30m
Altitude 28000
Route AROSO3A AROSO Y513 KALIL Y501 VIH R325 RINBA Y503 VPL P628 GIVAL L510 AGEGA N877 DUMAR L518 HIA W18 PONIP W28 PPN
Aircraft C30J/M-SDE2E3FGRY/H

Departure

Time 2026-04-20 07:24
Airport Singapore Changi Airport (WSSS)

Arrival

Time 2026-04-20 13:54
Airport Pune International Airport (VAPO)
Time Latitude Longitude Altitude Speed Heading
2026-04-20 06:41 1.36706 103.99292 22 ft 0 kts 203°
2026-04-20 07:02 1.36716 103.99296 23 ft 1 kts 202°
2026-04-20 07:02 1.36742 103.99306 23 ft 1 kts 201°
2026-04-20 07:02 1.36767 103.99315 21 ft 1 kts 192°
2026-04-20 07:03 1.36793 103.99317 21 ft 1 kts 164°
2026-04-20 07:03 1.36811 103.99306 23 ft 1 kts 113°
2026-04-20 07:03 1.36811 103.99305 21 ft 13 kts 113°
2026-04-20 07:09 1.36809 103.99310 22 ft 4 kts 112°
2026-04-20 07:09 1.36791 103.99354 22 ft 8 kts 112°
2026-04-20 07:09 1.36767 103.99413 25 ft 11 kts 112°
2026-04-20 07:09 1.36735 103.99488 23 ft 13 kts 114°
2026-04-20 07:10 1.36698 103.99574 24 ft 14 kts 113°
2026-04-20 07:10 1.36658 103.99667 21 ft 15 kts 113°
2026-04-20 07:10 1.36616 103.99765 22 ft 16 kts 112°
2026-04-20 07:10 1.36566 103.99838 24 ft 10 kts 159°
2026-04-20 07:11 1.36500 103.99823 24 ft 10 kts 200°
2026-04-20 07:11 1.36424 103.99793 23 ft 13 kts 202°
2026-04-20 07:11 1.36339 103.99758 21 ft 12 kts 197°
2026-04-20 07:11 1.36258 103.99726 21 ft 12 kts 204°
2026-04-20 07:12 1.36200 103.99700 23 ft 7 kts 203°
2026-04-20 07:12 1.36154 103.99681 22 ft 8 kts 203°
2026-04-20 07:12 1.36088 103.99653 24 ft 12 kts 204°
2026-04-20 07:12 1.35992 103.99611 21 ft 18 kts 202°
2026-04-20 07:13 1.35901 103.99573 23 ft 11 kts 203°
2026-04-20 07:13 1.35845 103.99549 24 ft 7 kts 202°
2026-04-20 07:13 1.35795 103.99528 21 ft 11 kts 204°
2026-04-20 07:13 1.35708 103.99490 24 ft 16 kts 203°
2026-04-20 07:14 1.35613 103.99452 25 ft 13 kts 202°
2026-04-20 07:14 1.35534 103.99419 21 ft 11 kts 203°
2026-04-20 07:14 1.35463 103.99390 21 ft 12 kts 202°
2026-04-20 07:14 1.35380 103.99354 23 ft 15 kts 202°
2026-04-20 07:15 1.35278 103.99311 24 ft 17 kts 202°
2026-04-20 07:15 1.35178 103.99270 21 ft 14 kts 202°
2026-04-20 07:15 1.35092 103.99233 24 ft 12 kts 203°
2026-04-20 07:15 1.35021 103.99206 21 ft 10 kts 209°
2026-04-20 07:16 1.34964 103.99178 25 ft 17 kts 202°
2026-04-20 07:16 1.34837 103.99125 21 ft 11 kts 204°
2026-04-20 07:16 1.34778 103.99100 25 ft 11 kts 202°
2026-04-20 07:16 1.34719 103.99075 21 ft 16 kts 202°
2026-04-20 07:17 1.34604 103.99027 25 ft 20 kts 203°
2026-04-20 07:17 1.34464 103.98967 24 ft 21 kts 203°
2026-04-20 07:17 1.34355 103.98923 24 ft 13 kts 202°
2026-04-20 07:17 1.34287 103.98895 24 ft 8 kts 202°
2026-04-20 07:18 1.34242 103.98876 21 ft 6 kts 202°
2026-04-20 07:18 1.34202 103.98859 24 ft 10 kts 202°
2026-04-20 07:18 1.34101 103.98819 22 ft 18 kts 202°
2026-04-20 07:18 1.34009 103.98780 24 ft 11 kts 202°
2026-04-20 07:19 1.33948 103.98753 22 ft 10 kts 204°
2026-04-20 07:19 1.33872 103.98720 22 ft 11 kts 204°
2026-04-20 07:19 1.33815 103.98694 22 ft 9 kts 204°
2026-04-20 07:19 1.33733 103.98659 22 ft 15 kts 204°
2026-04-20 07:20 1.33657 103.98626 25 ft 10 kts 201°
2026-04-20 07:20 1.33588 103.98599 24 ft 11 kts 201°
2026-04-20 07:20 1.33502 103.98563 22 ft 14 kts 205°
2026-04-20 07:20 1.33403 103.98520 23 ft 17 kts 202°
2026-04-20 07:21 1.33282 103.98470 24 ft 20 kts 202°
2026-04-20 07:21 1.33151 103.98415 25 ft 18 kts 202°
2026-04-20 07:21 1.33059 103.98376 23 ft 11 kts 201°
2026-04-20 07:21 1.32991 103.98355 22 ft 9 kts 175°
2026-04-20 07:22 1.32960 103.98385 22 ft 0 kts 117°
2026-04-20 07:22 1.32959 103.98385 22 ft 1 kts 117°
2026-04-20 07:22 1.32938 103.98433 24 ft 16 kts 113°
2026-04-20 07:22 1.32947 103.98523 24 ft 11 kts 28°
2026-04-20 07:23 1.32986 103.98538 22 ft 12 kts 24°
2026-04-20 07:23 1.33325 103.98682 23 ft 93 kts 22°
2026-04-20 07:23 1.34119 103.99012 24 ft 151 kts 22°
2026-04-20 07:23 1.35182 103.99443 269 ft 170 kts 22°
2026-04-20 07:24 1.36301 103.99874 828 ft 173 kts 21°
2026-04-20 07:24 1.37419 104.00327 1450 ft 173 kts 24°
2026-04-20 07:24 1.38559 104.00832 1789 ft 193 kts 24°
2026-04-20 07:24 1.39900 104.01427 1833 ft 222 kts 24°
2026-04-20 07:25 1.41358 104.02066 2165 ft 233 kts 24°
2026-04-20 07:25 1.42868 104.02722 2609 ft 239 kts 23°
2026-04-20 07:25 1.44408 104.03380 3097 ft 241 kts 23°
2026-04-20 07:25 1.45964 104.04046 3580 ft 244 kts 22°
2026-04-20 07:26 1.47537 104.04703 4048 ft 246 kts 19°
2026-04-20 07:26 1.49230 104.04927 4465 ft 249 kts 353°
2026-04-20 07:26 1.50877 104.04403 4931 ft 250 kts 335°
2026-04-20 07:26 1.52440 104.03633 5409 ft 252 kts 333°
2026-04-20 07:27 1.53937 104.02858 5891 ft 254 kts 332°
2026-04-20 07:27 1.55501 104.02035 6362 ft 255 kts 332°
2026-04-20 07:27 1.57075 104.01199 6801 ft 258 kts 331°
2026-04-20 07:27 1.58661 104.00351 7259 ft 259 kts 331°
2026-04-20 07:28 1.60260 103.99492 7705 ft 262 kts 331°
2026-04-20 07:28 1.61873 103.98624 8110 ft 265 kts 331°
2026-04-20 07:28 1.63499 103.97747 8529 ft 266 kts 331°
2026-04-20 07:28 1.65131 103.96867 8936 ft 268 kts 331°
2026-04-20 07:29 1.66775 103.95980 9318 ft 270 kts 331°
2026-04-20 07:29 1.68432 103.95085 9704 ft 271 kts 331°
2026-04-20 07:29 1.70093 103.94187 10085 ft 272 kts 331°
2026-04-20 07:29 1.71767 103.93283 10441 ft 273 kts 332°
2026-04-20 07:30 1.73426 103.92387 10786 ft 275 kts 332°
2026-04-20 07:30 1.75029 103.91362 11130 ft 276 kts 321°
2026-04-20 07:30 1.76404 103.90014 11441 ft 278 kts 311°
2026-04-20 07:30 1.77632 103.88515 11761 ft 279 kts 309°
2026-04-20 07:31 1.78842 103.86990 12067 ft 281 kts 309°
2026-04-20 07:31 1.80052 103.85447 12368 ft 282 kts 309°
2026-04-20 07:31 1.81263 103.83892 12658 ft 284 kts 308°
2026-04-20 07:31 1.82480 103.82323 12960 ft 285 kts 308°
2026-04-20 07:32 1.83680 103.80772 13238 ft 286 kts 308°
2026-04-20 07:32 1.84901 103.79193 13494 ft 287 kts 308°
2026-04-20 07:32 1.86127 103.77607 13752 ft 288 kts 308°
2026-04-20 07:32 1.87359 103.76012 14004 ft 290 kts 308°
2026-04-20 07:33 1.88595 103.74412 14241 ft 291 kts 308°
2026-04-20 07:33 1.89834 103.72807 14469 ft 292 kts 308°
2026-04-20 07:33 1.91060 103.71215 14692 ft 293 kts 308°
2026-04-20 07:33 1.92304 103.69597 14906 ft 294 kts 308°
2026-04-20 07:34 1.93552 103.67972 15143 ft 294 kts 308°
2026-04-20 07:34 1.94798 103.66350 15330 ft 296 kts 308°
2026-04-20 07:34 1.96061 103.64711 15519 ft 297 kts 308°
2026-04-20 07:35 1.98579 103.61435 15893 ft 299 kts 308°
2026-04-20 07:35 1.99852 103.59781 16086 ft 300 kts 308°
2026-04-20 07:35 2.01127 103.58124 16258 ft 300 kts 308°
2026-04-20 07:35 2.02400 103.56468 16412 ft 301 kts 308°
2026-04-20 07:36 2.03685 103.54798 16567 ft 302 kts 308°
2026-04-20 07:36 2.04952 103.53149 16731 ft 303 kts 308°
2026-04-20 07:36 2.06239 103.51476 16872 ft 304 kts 308°
2026-04-20 07:36 2.07525 103.49803 17024 ft 305 kts 308°
2026-04-20 07:37 2.08820 103.48118 17175 ft 306 kts 308°
2026-04-20 07:37 2.10118 103.46429 17319 ft 306 kts 308°
2026-04-20 07:37 2.11406 103.44754 17448 ft 307 kts 308°
2026-04-20 07:37 2.12713 103.43056 17571 ft 308 kts 308°
2026-04-20 07:38 2.13918 103.41292 17684 ft 308 kts 299°
2026-04-20 07:38 2.14819 103.39341 17797 ft 309 kts 291°
2026-04-20 07:38 2.15506 103.37301 17898 ft 310 kts 288°
2026-04-20 07:38 2.16149 103.35242 18002 ft 311 kts 288°
2026-04-20 07:39 2.16779 103.33164 18118 ft 311 kts 287°
2026-04-20 07:39 2.17398 103.31088 18218 ft 312 kts 287°
2026-04-20 07:39 2.18005 103.29034 18317 ft 312 kts 287°
2026-04-20 07:39 2.18618 103.26951 18428 ft 313 kts 287°
2026-04-20 07:40 2.19230 103.24860 18528 ft 313 kts 287°
2026-04-20 07:40 2.19842 103.22770 18609 ft 312 kts 287°
2026-04-20 07:40 2.20459 103.20672 18681 ft 314 kts 287°
2026-04-20 07:40 2.21072 103.18574 18734 ft 315 kts 287°
2026-04-20 07:41 2.21686 103.16474 18807 ft 315 kts 287°
2026-04-20 07:41 2.22306 103.14359 18887 ft 316 kts 287°
2026-04-20 07:41 2.22914 103.12279 18957 ft 316 kts 287°
2026-04-20 07:41 2.23533 103.10163 19030 ft 316 kts 287°
2026-04-20 07:42 2.24150 103.08051 19101 ft 317 kts 287°
2026-04-20 07:42 2.24769 103.05934 19171 ft 317 kts 287°
2026-04-20 07:42 2.25390 103.03812 19238 ft 318 kts 287°
2026-04-20 07:42 2.26010 103.01691 19299 ft 318 kts 287°
2026-04-20 07:43 2.26633 102.99564 19357 ft 318 kts 287°
2026-04-20 07:43 2.27255 102.97435 19415 ft 319 kts 287°
2026-04-20 07:43 2.27877 102.95309 19473 ft 319 kts 287°
2026-04-20 07:43 2.28494 102.93199 19528 ft 319 kts 287°
2026-04-20 07:44 2.29119 102.91063 19581 ft 320 kts 287°
2026-04-20 07:44 2.29743 102.88929 19634 ft 320 kts 287°
2026-04-20 07:44 2.30367 102.86794 19675 ft 320 kts 287°
2026-04-20 07:44 2.30994 102.84657 19721 ft 321 kts 287°
2026-04-20 07:45 2.31623 102.82516 19753 ft 321 kts 287°
2026-04-20 07:45 2.32252 102.80377 19800 ft 321 kts 287°
2026-04-20 07:45 2.32882 102.78228 19845 ft 321 kts 287°
2026-04-20 07:45 2.33509 102.76082 19894 ft 322 kts 287°
2026-04-20 07:46 2.34138 102.73926 19930 ft 322 kts 287°
2026-04-20 07:46 2.34765 102.71779 19968 ft 322 kts 287°
2026-04-20 07:46 2.35393 102.69626 20005 ft 322 kts 287°
2026-04-20 07:46 2.36015 102.67498 20040 ft 323 kts 287°
2026-04-20 07:47 2.36643 102.65349 20058 ft 322 kts 287°
2026-04-20 07:47 2.37272 102.63204 20064 ft 322 kts 287°
2026-04-20 07:47 2.37902 102.61054 20087 ft 323 kts 287°
2026-04-20 07:47 2.38531 102.58885 20150 ft 323 kts 287°
2026-04-20 07:48 2.39160 102.56726 20188 ft 323 kts 287°
2026-04-20 07:48 2.39786 102.54587 20224 ft 324 kts 287°
2026-04-20 07:48 2.40417 102.52424 20258 ft 324 kts 287°
2026-04-20 07:48 2.41050 102.50259 20275 ft 324 kts 287°
2026-04-20 07:49 2.41674 102.48121 20296 ft 324 kts 287°
2026-04-20 07:49 2.42307 102.45953 20314 ft 324 kts 287°
2026-04-20 07:49 2.42939 102.43787 20343 ft 324 kts 287°
2026-04-20 07:49 2.43573 102.41616 20364 ft 325 kts 287°
2026-04-20 07:50 2.44200 102.39468 20386 ft 325 kts 287°
2026-04-20 07:50 2.44833 102.37299 20417 ft 325 kts 287°
2026-04-20 07:50 2.45528 102.35144 20435 ft 325 kts 294°
2026-04-20 07:50 2.46672 102.33210 20471 ft 323 kts 308°
2026-04-20 07:51 2.48219 102.31581 20492 ft 323 kts 318°
2026-04-20 07:51 2.49921 102.30109 20507 ft 323 kts 320°
2026-04-20 07:51 2.51637 102.28690 20526 ft 324 kts 321°
2026-04-20 07:51 2.53393 102.27273 20521 ft 325 kts 321°
2026-04-20 07:52 2.55136 102.25886 20533 ft 325 kts 321°
2026-04-20 07:52 2.56876 102.24512 20564 ft 325 kts 322°
2026-04-20 07:52 2.58657 102.23111 20578 ft 325 kts 322°
2026-04-20 07:52 2.60434 102.21714 20599 ft 325 kts 322°
2026-04-20 07:53 2.62215 102.20317 20617 ft 325 kts 322°
2026-04-20 07:53 2.63997 102.18918 20622 ft 325 kts 322°
2026-04-20 07:53 2.65764 102.17532 20653 ft 325 kts 322°
2026-04-20 07:53 2.67570 102.16116 20683 ft 326 kts 322°
2026-04-20 07:54 2.69332 102.14734 20712 ft 326 kts 322°
2026-04-20 07:54 2.71093 102.13352 21048 ft 314 kts 322°
2026-04-20 07:54 2.72789 102.12021 21424 ft 305 kts 322°
2026-04-20 07:54 2.74446 102.10722 21634 ft 302 kts 322°
2026-04-20 07:55 2.76098 102.09426 21735 ft 302 kts 322°
2026-04-20 07:55 2.77753 102.08128 21800 ft 304 kts 322°
2026-04-20 07:55 2.79429 102.06813 21799 ft 308 kts 322°
2026-04-20 07:55 2.81123 102.05484 21798 ft 311 kts 322°
2026-04-20 07:56 2.82833 102.04142 21798 ft 313 kts 322°
2026-04-20 07:56 2.83969 102.03251 21800 ft 314 kts 322°
2026-04-20 07:56 2.85700 102.01892 21801 ft 316 kts 322°
2026-04-20 07:56 2.87435 102.00530 21797 ft 318 kts 322°
2026-04-20 07:57 2.89182 101.99159 21797 ft 319 kts 322°
2026-04-20 07:57 2.90927 101.97789 21800 ft 319 kts 322°
2026-04-20 07:57 2.92683 101.96410 21800 ft 320 kts 322°
2026-04-20 07:57 2.94443 101.95029 21798 ft 321 kts 322°
2026-04-20 07:58 2.96202 101.93648 21800 ft 322 kts 322°
2026-04-20 07:58 2.97951 101.92275 21799 ft 323 kts 322°
2026-04-20 07:58 2.99721 101.90885 21798 ft 324 kts 322°
2026-04-20 07:58 3.01494 101.89493 21798 ft 324 kts 322°
2026-04-20 07:59 3.03264 101.88103 21798 ft 324 kts 322°
2026-04-20 07:59 3.05039 101.86710 21797 ft 324 kts 322°
2026-04-20 07:59 3.06813 101.85316 21799 ft 324 kts 322°
2026-04-20 07:59 3.08584 101.83925 21813 ft 324 kts 322°
2026-04-20 08:00 3.10358 101.82532 21820 ft 324 kts 322°
2026-04-20 08:00 3.12132 101.81138 21815 ft 324 kts 322°
2026-04-20 08:00 3.13907 101.79744 21817 ft 325 kts 322°
2026-04-20 08:00 3.15686 101.78346 21817 ft 325 kts 322°
2026-04-20 08:01 3.17435 101.76973 21814 ft 325 kts 322°
2026-04-20 08:01 3.19244 101.75552 21817 ft 325 kts 322°
2026-04-20 08:01 3.21023 101.74154 21815 ft 326 kts 322°
2026-04-20 08:01 3.22803 101.72754 21816 ft 326 kts 322°
2026-04-20 08:02 3.24586 101.71353 21822 ft 325 kts 322°
2026-04-20 08:02 3.26367 101.69954 21816 ft 325 kts 322°
2026-04-20 08:02 3.28148 101.68555 21817 ft 325 kts 322°
2026-04-20 08:02 3.29929 101.67155 21815 ft 325 kts 322°
2026-04-20 08:03 3.31709 101.65801 21815 ft 325 kts 326°
2026-04-20 08:03 3.33629 101.64635 21815 ft 325 kts 332°
2026-04-20 08:03 3.35661 101.63622 21815 ft 325 kts 335°
2026-04-20 08:03 3.37706 101.62674 21817 ft 325 kts 335°
2026-04-20 08:04 3.39767 101.61737 21815 ft 325 kts 335°
2026-04-20 08:04 3.41830 101.60809 21817 ft 325 kts 335°
2026-04-20 08:04 3.43822 101.59918 21814 ft 325 kts 336°
2026-04-20 08:04 3.45889 101.58997 21815 ft 325 kts 336°
2026-04-20 08:05 3.47951 101.58079 21817 ft 325 kts 336°
2026-04-20 08:05 3.49992 101.57170 21818 ft 325 kts 336°
2026-04-20 08:05 3.52058 101.56252 21819 ft 325 kts 336°
2026-04-20 08:05 3.54138 101.55326 21815 ft 326 kts 336°
2026-04-20 08:06 3.56214 101.54402 21816 ft 326 kts 336°
2026-04-20 08:06 3.58286 101.53482 21815 ft 326 kts 336°
2026-04-20 08:06 3.60334 101.52571 21815 ft 326 kts 336°
2026-04-20 08:06 3.62409 101.51648 21817 ft 326 kts 336°
2026-04-20 08:07 3.64478 101.50728 21817 ft 326 kts 336°
2026-04-20 08:07 3.66547 101.49808 21818 ft 325 kts 336°
2026-04-20 08:07 3.68613 101.48889 21819 ft 325 kts 336°
2026-04-20 08:07 3.70679 101.47970 21819 ft 325 kts 336°
2026-04-20 08:08 3.72744 101.47052 21816 ft 325 kts 336°
2026-04-20 08:08 3.74812 101.46132 21817 ft 325 kts 336°
2026-04-20 08:08 3.76879 101.45212 21818 ft 324 kts 336°
2026-04-20 08:08 3.78902 101.44312 21816 ft 324 kts 336°
2026-04-20 08:09 3.80990 101.43383 21817 ft 324 kts 336°
2026-04-20 08:09 3.83027 101.42476 21818 ft 324 kts 336°
2026-04-20 08:09 3.85088 101.41559 21816 ft 324 kts 336°
2026-04-20 08:09 3.87147 101.40643 21818 ft 324 kts 336°
2026-04-20 08:10 3.89210 101.39726 21817 ft 324 kts 336°
2026-04-20 08:10 3.91270 101.38810 21816 ft 324 kts 336°
2026-04-20 08:10 3.93325 101.37895 21815 ft 324 kts 336°
2026-04-20 08:10 3.95383 101.36980 21816 ft 323 kts 336°
2026-04-20 08:11 3.97445 101.36064 21815 ft 324 kts 336°
2026-04-20 08:11 3.99505 101.35147 21819 ft 324 kts 336°
2026-04-20 08:11 4.01565 101.34231 21817 ft 324 kts 336°
2026-04-20 08:11 4.03627 101.33314 21814 ft 324 kts 336°
2026-04-20 08:12 4.05687 101.32398 21817 ft 324 kts 336°
2026-04-20 08:12 4.07758 101.31477 21818 ft 324 kts 336°
2026-04-20 08:12 4.09820 101.30560 21815 ft 324 kts 336°
2026-04-20 08:12 4.11876 101.29645 21814 ft 323 kts 336°
2026-04-20 08:13 4.13908 101.28741 21818 ft 324 kts 336°
2026-04-20 08:13 4.15969 101.27824 21817 ft 324 kts 336°
2026-04-20 08:13 4.18025 101.26909 21815 ft 323 kts 336°
2026-04-20 08:13 4.20091 101.25989 21815 ft 324 kts 336°
2026-04-20 08:14 4.22158 101.25069 21817 ft 324 kts 336°
2026-04-20 08:14 4.24204 101.24159 21816 ft 325 kts 336°
2026-04-20 08:14 4.26264 101.23242 21817 ft 325 kts 336°
2026-04-20 08:14 4.28306 101.22333 21816 ft 325 kts 336°
2026-04-20 08:15 4.30375 101.21412 21813 ft 324 kts 336°
2026-04-20 08:15 4.32439 101.20493 21819 ft 324 kts 336°
2026-04-20 08:15 4.34503 101.19574 21820 ft 324 kts 336°
2026-04-20 08:15 4.36566 101.18655 21821 ft 325 kts 336°
2026-04-20 08:16 4.38634 101.17734 21817 ft 325 kts 336°
2026-04-20 08:16 4.40698 101.16815 21818 ft 324 kts 336°
2026-04-20 08:16 4.42759 101.15898 21817 ft 324 kts 336°
2026-04-20 08:16 4.44828 101.14977 21816 ft 325 kts 336°
2026-04-20 08:17 4.46879 101.14063 21816 ft 325 kts 336°
2026-04-20 08:17 4.48949 101.13140 21817 ft 325 kts 336°
2026-04-20 08:17 4.51016 101.12219 21816 ft 326 kts 336°
2026-04-20 08:17 4.53085 101.11298 21817 ft 326 kts 336°
2026-04-20 08:18 4.55161 101.10373 21820 ft 326 kts 336°
2026-04-20 08:18 4.57233 101.09450 21819 ft 326 kts 336°
2026-04-20 08:18 4.59283 101.08557 21816 ft 325 kts 336°
2026-04-20 08:18 4.61366 101.07662 21815 ft 325 kts 336°
2026-04-20 08:19 4.63446 101.06767 21817 ft 326 kts 336°
2026-04-20 08:19 4.65506 101.05879 21810 ft 326 kts 336°
2026-04-20 08:19 4.67591 101.04981 21788 ft 326 kts 336°
2026-04-20 08:19 4.69679 101.04082 21786 ft 326 kts 336°
2026-04-20 08:20 4.71757 101.03185 21791 ft 325 kts 336°
2026-04-20 08:20 4.73844 101.02284 21790 ft 326 kts 336°
2026-04-20 08:20 4.75920 101.01389 21788 ft 326 kts 336°
2026-04-20 08:20 4.78000 101.00492 21787 ft 325 kts 336°
2026-04-20 08:21 4.80078 100.99595 21789 ft 325 kts 336°
2026-04-20 08:21 4.82161 100.98697 21788 ft 326 kts 336°
2026-04-20 08:21 4.84219 100.97808 21789 ft 326 kts 336°
2026-04-20 08:21 4.86303 100.96909 21787 ft 326 kts 336°
2026-04-20 08:22 4.88391 100.96008 21788 ft 325 kts 336°
2026-04-20 08:22 4.90475 100.95108 21789 ft 325 kts 336°
2026-04-20 08:22 4.92556 100.94210 21789 ft 326 kts 336°
2026-04-20 08:22 4.94612 100.93323 21789 ft 326 kts 336°
2026-04-20 08:23 4.96694 100.92425 21789 ft 326 kts 336°
2026-04-20 08:23 4.98785 100.91522 21789 ft 327 kts 336°
2026-04-20 08:23 5.00876 100.90619 21787 ft 327 kts 336°
2026-04-20 08:23 5.02966 100.89717 21788 ft 326 kts 336°
2026-04-20 08:24 5.05052 100.88816 21791 ft 326 kts 336°
2026-04-20 08:24 5.07137 100.87915 21791 ft 327 kts 336°
2026-04-20 08:24 5.09226 100.87014 21785 ft 327 kts 336°
2026-04-20 08:24 5.11317 100.86110 21788 ft 326 kts 336°
2026-04-20 08:25 5.13410 100.85207 21791 ft 327 kts 337°
2026-04-20 08:25 5.15496 100.84306 21784 ft 327 kts 336°
2026-04-20 08:25 5.17585 100.83403 21789 ft 327 kts 336°
2026-04-20 08:25 5.19652 100.82510 21790 ft 327 kts 337°
2026-04-20 08:26 5.21743 100.81607 21793 ft 327 kts 337°
2026-04-20 08:26 5.23832 100.80705 21796 ft 328 kts 337°
2026-04-20 08:26 5.25928 100.79799 21797 ft 328 kts 337°
2026-04-20 08:26 5.28023 100.78894 21797 ft 328 kts 337°
2026-04-20 08:27 5.30115 100.77989 21797 ft 327 kts 337°
2026-04-20 08:27 5.32210 100.77084 21788 ft 328 kts 337°
2026-04-20 08:27 5.34308 100.76177 21786 ft 328 kts 336°
2026-04-20 08:27 5.36305 100.75076 21790 ft 327 kts 326°
2026-04-20 08:28 5.38088 100.73697 21787 ft 328 kts 319°
2026-04-20 08:28 5.39757 100.72125 21793 ft 328 kts 316°
2026-04-20 08:28 5.41390 100.70525 21789 ft 328 kts 316°
2026-04-20 08:28 5.43011 100.68907 21788 ft 328 kts 315°
2026-04-20 08:29 5.44623 100.67281 21789 ft 329 kts 315°
2026-04-20 08:29 5.46232 100.65649 21788 ft 329 kts 315°
2026-04-20 08:29 5.47839 100.64015 21788 ft 329 kts 315°
2026-04-20 08:29 5.49445 100.62380 21788 ft 329 kts 315°
2026-04-20 08:30 5.50990 100.60806 21788 ft 330 kts 315°
2026-04-20 08:30 5.52601 100.59166 21787 ft 329 kts 315°
2026-04-20 08:30 5.54209 100.57526 21789 ft 329 kts 315°
2026-04-20 08:30 5.55796 100.55908 21790 ft 329 kts 315°
2026-04-20 08:31 5.57404 100.54268 21791 ft 329 kts 315°
2026-04-20 08:31 5.59016 100.52626 21790 ft 330 kts 315°
2026-04-20 08:31 5.60625 100.50985 21788 ft 330 kts 315°
2026-04-20 08:31 5.62215 100.49364 21789 ft 329 kts 315°
2026-04-20 08:32 5.63820 100.47726 21789 ft 330 kts 315°
2026-04-20 08:32 5.65430 100.46085 21788 ft 330 kts 315°
2026-04-20 08:32 5.66962 100.44522 21789 ft 330 kts 315°
2026-04-20 08:32 5.68556 100.42896 21788 ft 330 kts 315°
2026-04-20 08:33 5.70167 100.41252 21792 ft 330 kts 315°
2026-04-20 08:33 5.73371 100.37983 21788 ft 330 kts 315°
2026-04-20 08:33 5.74985 100.36335 21788 ft 330 kts 315°
2026-04-20 08:34 5.76594 100.34694 21789 ft 330 kts 315°
2026-04-20 08:34 5.78205 100.33050 21788 ft 330 kts 315°
2026-04-20 08:34 5.79816 100.31405 21788 ft 331 kts 315°
2026-04-20 08:34 5.81433 100.29755 21789 ft 331 kts 315°
2026-04-20 08:35 5.83046 100.28107 21788 ft 331 kts 315°
2026-04-20 08:35 5.84649 100.26471 21789 ft 331 kts 315°
2026-04-20 08:35 5.86268 100.24819 21788 ft 331 kts 315°
2026-04-20 08:35 5.87882 100.23170 21789 ft 331 kts 315°
2026-04-20 08:36 5.89479 100.21540 21788 ft 331 kts 315°
2026-04-20 08:36 5.91112 100.19872 21788 ft 331 kts 315°
2026-04-20 08:36 5.92708 100.18243 21789 ft 331 kts 315°
2026-04-20 08:36 5.94324 100.16592 21788 ft 331 kts 315°
2026-04-20 08:37 5.95938 100.14943 21788 ft 331 kts 315°
2026-04-20 08:37 5.97556 100.13290 21788 ft 331 kts 315°
2026-04-20 08:37 5.99172 100.11639 21788 ft 331 kts 315°
2026-04-20 08:37 6.00785 100.09990 21797 ft 331 kts 315°
2026-04-20 08:38 6.02398 100.08342 21800 ft 331 kts 315°
2026-04-20 08:38 6.04016 100.06688 21798 ft 331 kts 315°
2026-04-20 08:38 6.05635 100.05034 21798 ft 331 kts 315°
2026-04-20 08:38 6.07249 100.03384 21797 ft 331 kts 315°
2026-04-20 08:39 6.08865 100.01733 21798 ft 331 kts 315°
2026-04-20 08:39 6.10479 100.00082 21798 ft 331 kts 315°
2026-04-20 08:39 6.12091 99.98431 21798 ft 331 kts 315°
2026-04-20 08:39 6.13706 99.96777 21798 ft 331 kts 315°
2026-04-20 08:40 6.15320 99.95125 21807 ft 331 kts 315°
2026-04-20 08:40 6.16933 99.93476 21808 ft 331 kts 315°
2026-04-20 08:40 6.18526 99.91845 21807 ft 331 kts 315°
2026-04-20 08:40 6.20142 99.90192 21808 ft 331 kts 315°
2026-04-20 08:41 6.21765 99.88533 21807 ft 331 kts 315°
2026-04-20 08:41 6.23380 99.86881 21806 ft 331 kts 315°
2026-04-20 08:41 6.24993 99.85230 21807 ft 331 kts 315°
2026-04-20 08:41 6.26608 99.83579 21808 ft 331 kts 315°
2026-04-20 08:42 6.28221 99.81928 21812 ft 331 kts 315°
2026-04-20 08:42 6.29291 99.80833 21817 ft 331 kts 315°
2026-04-20 08:42 6.30902 99.79184 21818 ft 331 kts 315°
2026-04-20 08:42 6.33051 99.76986 21817 ft 331 kts 315°
2026-04-20 08:43 6.34085 99.75824 21815 ft 331 kts 308°
2026-04-20 08:43 6.35338 99.73913 21818 ft 332 kts 299°
2026-04-20 08:43 6.36324 99.71811 21820 ft 332 kts 293°
2026-04-20 08:43 6.37196 99.69655 21819 ft 332 kts 292°
2026-04-20 08:44 6.38038 99.67493 21822 ft 332 kts 291°
2026-04-20 08:44 6.38865 99.65319 21818 ft 332 kts 291°
2026-04-20 08:44 6.39684 99.63142 21816 ft 332 kts 291°
2026-04-20 08:44 6.40496 99.60968 21815 ft 332 kts 291°
2026-04-20 08:45 6.41308 99.58787 21814 ft 332 kts 291°
2026-04-20 08:45 6.42117 99.56613 21817 ft 332 kts 291°
2026-04-20 08:45 6.42926 99.54439 21818 ft 332 kts 291°
2026-04-20 08:45 6.43736 99.52258 21816 ft 332 kts 291°
2026-04-20 08:46 6.44545 99.50079 21820 ft 332 kts 291°
2026-04-20 08:46 6.45344 99.47926 21818 ft 332 kts 291°
2026-04-20 08:46 6.46154 99.45745 21815 ft 332 kts 291°
2026-04-20 08:46 6.46954 99.43592 21817 ft 333 kts 291°
2026-04-20 08:47 6.47763 99.41413 21818 ft 333 kts 291°
2026-04-20 08:47 6.48572 99.39231 21815 ft 333 kts 291°
2026-04-20 08:47 6.49382 99.37048 21816 ft 333 kts 291°
2026-04-20 08:47 6.50192 99.34867 21817 ft 333 kts 291°
2026-04-20 08:48 6.50991 99.32710 21816 ft 333 kts 291°
2026-04-20 08:48 6.51798 99.30532 21816 ft 333 kts 291°
2026-04-20 08:48 6.52616 99.28324 21816 ft 333 kts 291°
2026-04-20 08:48 6.53399 99.26212 21818 ft 333 kts 291°
2026-04-20 08:49 6.54209 99.24027 21820 ft 333 kts 291°
2026-04-20 08:49 6.55018 99.21844 21820 ft 333 kts 291°
2026-04-20 08:49 6.55825 99.19666 21816 ft 333 kts 291°
2026-04-20 08:49 6.56635 99.17483 21814 ft 333 kts 291°
2026-04-20 08:50 6.57445 99.15294 21816 ft 333 kts 291°
2026-04-20 08:50 6.58251 99.13120 21815 ft 333 kts 291°
2026-04-20 08:50 6.59062 99.10934 21817 ft 333 kts 291°
2026-04-20 08:50 6.59871 99.08750 21817 ft 333 kts 291°
2026-04-20 08:51 6.60681 99.06564 21815 ft 333 kts 291°
2026-04-20 08:51 6.61480 99.04407 21818 ft 333 kts 291°
2026-04-20 08:51 6.62298 99.02198 21815 ft 333 kts 291°
2026-04-20 08:51 6.63094 99.00043 21816 ft 333 kts 291°
2026-04-20 08:52 6.63903 98.97862 21817 ft 333 kts 291°
2026-04-20 08:52 6.64712 98.95677 21815 ft 333 kts 291°
2026-04-20 08:52 6.65521 98.93490 21817 ft 333 kts 291°
2026-04-20 08:52 6.66327 98.91308 21816 ft 333 kts 291°
2026-04-20 08:53 6.67135 98.89125 21816 ft 333 kts 291°
2026-04-20 08:53 6.67944 98.86941 21818 ft 333 kts 291°
2026-04-20 08:53 6.68750 98.84763 21818 ft 333 kts 291°
2026-04-20 08:53 6.69559 98.82574 21818 ft 333 kts 291°
2026-04-20 08:54 6.70368 98.80388 21817 ft 333 kts 291°
2026-04-20 08:54 6.71158 98.78252 21818 ft 333 kts 291°
2026-04-20 08:54 6.71969 98.76059 21814 ft 333 kts 291°
2026-04-20 08:54 6.72765 98.73904 21817 ft 333 kts 291°
2026-04-20 08:55 6.73572 98.71721 21816 ft 333 kts 291°
2026-04-20 08:55 6.74379 98.69536 21817 ft 333 kts 291°
2026-04-20 08:55 6.75185 98.67356 21817 ft 333 kts 291°
2026-04-20 08:55 6.75992 98.65170 21818 ft 333 kts 291°
2026-04-20 08:56 6.76800 98.62981 21815 ft 333 kts 291°
2026-04-20 08:56 6.77609 98.60791 21815 ft 333 kts 291°
2026-04-20 08:56 6.78405 98.58634 21816 ft 333 kts 291°
2026-04-20 08:56 6.79212 98.56449 21816 ft 333 kts 291°
2026-04-20 08:57 6.80019 98.54261 21818 ft 333 kts 291°
2026-04-20 08:57 6.80826 98.52074 21817 ft 333 kts 291°
2026-04-20 08:57 6.81631 98.49892 21816 ft 333 kts 291°
2026-04-20 08:57 6.82437 98.47706 21818 ft 333 kts 291°
2026-04-20 08:58 6.83248 98.45507 21817 ft 333 kts 291°
2026-04-20 08:58 6.84055 98.43321 21817 ft 333 kts 291°
2026-04-20 08:58 6.84861 98.41135 21816 ft 333 kts 291°
2026-04-20 08:58 6.85657 98.38976 21818 ft 333 kts 291°
2026-04-20 08:59 6.86466 98.36782 21816 ft 333 kts 291°
2026-04-20 08:59 6.87271 98.34599 21817 ft 333 kts 291°
2026-04-20 08:59 6.88079 98.32404 21814 ft 333 kts 291°
2026-04-20 08:59 6.88886 98.30214 21814 ft 333 kts 291°
2026-04-20 09:00 6.89694 98.28021 21818 ft 333 kts 291°
2026-04-20 09:00 6.90500 98.25834 21818 ft 333 kts 291°
2026-04-20 09:00 6.91307 98.23643 21817 ft 333 kts 291°
2026-04-20 09:00 6.92111 98.21460 21815 ft 333 kts 291°
2026-04-20 09:01 6.92906 98.19299 21817 ft 333 kts 291°
2026-04-20 09:01 6.93713 98.17108 21816 ft 333 kts 291°
2026-04-20 09:01 6.94520 98.14915 21816 ft 333 kts 291°
2026-04-20 09:01 6.95326 98.12723 21818 ft 334 kts 291°
2026-04-20 09:02 6.96132 98.10532 21822 ft 333 kts 291°
2026-04-20 09:02 6.96932 98.08358 21819 ft 334 kts 291°
2026-04-20 09:02 6.97736 98.06172 21816 ft 333 kts 291°
2026-04-20 09:02 6.98544 98.03975 21817 ft 334 kts 291°
2026-04-20 09:03 6.99350 98.01782 21819 ft 334 kts 291°
2026-04-20 09:03 7.00205 97.99605 21816 ft 333 kts 295°
2026-04-20 09:03 7.01174 97.97480 21818 ft 334 kts 295°
2026-04-20 09:03 7.02154 97.95361 21818 ft 334 kts 295°
2026-04-20 09:04 7.03136 97.93242 21818 ft 334 kts 295°
2026-04-20 09:04 7.04120 97.91122 21817 ft 334 kts 295°
2026-04-20 09:04 7.05100 97.89011 21817 ft 334 kts 295°
2026-04-20 09:04 7.06086 97.86890 21817 ft 334 kts 296°
2026-04-20 09:05 7.07070 97.84773 21817 ft 334 kts 296°
2026-04-20 09:05 7.08055 97.82655 21816 ft 334 kts 296°
2026-04-20 09:05 7.09046 97.80523 21817 ft 335 kts 296°
2026-04-20 09:05 7.10020 97.78426 21816 ft 335 kts 296°
2026-04-20 09:06 7.11010 97.76295 21818 ft 335 kts 296°
2026-04-20 09:06 7.11995 97.74174 21815 ft 335 kts 296°
2026-04-20 09:06 7.12983 97.72049 21816 ft 335 kts 296°
2026-04-20 09:06 7.13969 97.69925 21817 ft 335 kts 296°
2026-04-20 09:07 7.14957 97.67797 21818 ft 335 kts 296°
2026-04-20 09:07 7.15943 97.65673 21816 ft 335 kts 296°
2026-04-20 09:07 7.16918 97.63573 21816 ft 335 kts 296°
2026-04-20 09:07 7.17903 97.61452 21818 ft 335 kts 296°
2026-04-20 09:08 7.18889 97.59326 21813 ft 335 kts 296°
2026-04-20 09:08 7.19875 97.57201 21818 ft 335 kts 296°
2026-04-20 09:08 7.20862 97.55072 21816 ft 335 kts 296°
2026-04-20 09:08 7.21846 97.52950 21818 ft 335 kts 296°
2026-04-20 09:09 7.22834 97.50819 21815 ft 335 kts 296°
2026-04-20 09:09 7.23819 97.48695 21817 ft 335 kts 296°
2026-04-20 09:09 7.24805 97.46568 21813 ft 335 kts 296°
2026-04-20 09:09 7.25790 97.44445 21815 ft 335 kts 296°
2026-04-20 09:10 7.26773 97.42323 21817 ft 335 kts 296°
2026-04-20 09:10 7.27759 97.40195 21818 ft 335 kts 296°
2026-04-20 09:10 7.28732 97.38095 21819 ft 335 kts 296°
2026-04-20 09:10 7.29717 97.35969 21815 ft 335 kts 296°
2026-04-20 09:11 7.30704 97.33839 21820 ft 335 kts 296°
2026-04-20 09:11 7.31686 97.31718 21818 ft 335 kts 296°
2026-04-20 09:11 7.32672 97.29589 21816 ft 335 kts 295°
2026-04-20 09:11 7.33656 97.27463 21816 ft 335 kts 296°
2026-04-20 09:12 7.34640 97.25336 21815 ft 335 kts 295°
2026-04-20 09:12 7.35624 97.23210 21817 ft 335 kts 296°
2026-04-20 09:12 7.36610 97.21077 21816 ft 335 kts 295°
2026-04-20 09:12 7.37527 97.19098 21816 ft 335 kts 295°
2026-04-20 09:13 7.38513 97.16967 21817 ft 335 kts 295°
2026-04-20 09:13 7.39493 97.14847 21814 ft 335 kts 295°
2026-04-20 09:13 7.40466 97.12744 21818 ft 335 kts 295°
2026-04-20 09:13 7.41448 97.10617 21818 ft 335 kts 295°
2026-04-20 09:14 7.42433 97.08489 21816 ft 335 kts 295°
2026-04-20 09:14 7.43418 97.06358 21818 ft 335 kts 295°
2026-04-20 09:14 7.44403 97.04228 21817 ft 335 kts 295°
2026-04-20 09:14 7.45387 97.02098 21824 ft 335 kts 295°
2026-04-20 09:15 7.46370 96.99971 21830 ft 335 kts 295°
2026-04-20 09:15 7.47354 96.97839 21826 ft 335 kts 295°
2026-04-20 09:15 7.48337 96.95709 21826 ft 335 kts 295°
2026-04-20 09:15 7.49322 96.93579 21826 ft 335 kts 295°
2026-04-20 09:16 7.50305 96.91450 21824 ft 335 kts 295°
2026-04-20 09:16 7.51290 96.89317 21826 ft 335 kts 295°
2026-04-20 09:16 7.52262 96.87212 21825 ft 335 kts 295°
2026-04-20 09:16 7.53245 96.85082 21827 ft 335 kts 295°
2026-04-20 09:17 7.54230 96.82947 21827 ft 335 kts 295°
2026-04-20 09:17 7.55211 96.80820 21825 ft 335 kts 295°
2026-04-20 09:17 7.56198 96.78681 21827 ft 335 kts 295°
2026-04-20 09:17 7.57152 96.76614 21828 ft 335 kts 295°
2026-04-20 09:18 7.58136 96.74480 21828 ft 335 kts 295°
2026-04-20 09:18 7.59117 96.72351 21826 ft 335 kts 295°
2026-04-20 09:18 7.60101 96.70218 21824 ft 335 kts 295°
2026-04-20 09:18 7.61083 96.68086 21827 ft 335 kts 295°
2026-04-20 09:19 7.62066 96.65954 21824 ft 336 kts 295°
2026-04-20 09:19 7.63048 96.63822 21827 ft 335 kts 295°
2026-04-20 09:19 7.64030 96.61691 21828 ft 335 kts 295°
2026-04-20 09:19 7.65003 96.59579 21823 ft 335 kts 295°
2026-04-20 09:20 7.65984 96.57449 21826 ft 335 kts 295°
2026-04-20 09:20 7.66968 96.55313 21822 ft 335 kts 295°
2026-04-20 09:20 7.67952 96.53175 21816 ft 336 kts 295°
2026-04-20 09:20 7.68935 96.51038 21814 ft 336 kts 295°
2026-04-20 09:21 7.69922 96.48896 21818 ft 337 kts 295°
2026-04-20 09:21 7.70907 96.46757 21816 ft 337 kts 295°
2026-04-20 09:21 7.71894 96.44613 21815 ft 337 kts 295°
2026-04-20 09:21 7.72881 96.42467 21816 ft 337 kts 295°
2026-04-20 09:22 7.73858 96.40342 21815 ft 338 kts 295°
2026-04-20 09:22 7.74848 96.38189 21817 ft 338 kts 295°
2026-04-20 09:22 7.75835 96.36043 21814 ft 338 kts 295°
2026-04-20 09:22 7.76823 96.33895 21818 ft 338 kts 295°
2026-04-20 09:23 7.77800 96.31771 21819 ft 338 kts 295°
2026-04-20 09:23 7.78788 96.29622 21817 ft 338 kts 295°
2026-04-20 09:23 7.79777 96.27470 21814 ft 338 kts 295°
2026-04-20 09:23 7.80764 96.25322 21818 ft 338 kts 295°
2026-04-20 09:24 7.81751 96.23171 21814 ft 338 kts 295°
2026-04-20 09:24 7.82739 96.21022 21818 ft 338 kts 295°
2026-04-20 09:24 7.83726 96.18874 21816 ft 338 kts 295°
2026-04-20 09:24 7.84712 96.16727 21818 ft 338 kts 295°
2026-04-20 09:25 7.85699 96.14576 21815 ft 338 kts 295°
2026-04-20 09:25 7.86686 96.12424 21814 ft 338 kts 295°
2026-04-20 09:25 7.87673 96.10275 21817 ft 338 kts 295°
2026-04-20 09:25 7.88658 96.08127 21815 ft 338 kts 295°
2026-04-20 09:26 7.89644 96.05977 21815 ft 338 kts 295°
2026-04-20 09:26 7.90633 96.03824 21814 ft 337 kts 295°
2026-04-20 09:26 7.91619 96.01674 21818 ft 338 kts 295°
2026-04-20 09:26 7.92605 95.99526 21817 ft 338 kts 295°
2026-04-20 09:27 7.93578 95.97403 21819 ft 338 kts 295°
2026-04-20 09:27 7.94566 95.95248 21815 ft 338 kts 295°
2026-04-20 09:27 7.95550 95.93101 21819 ft 337 kts 295°
2026-04-20 09:27 7.96534 95.90951 21814 ft 338 kts 295°
2026-04-20 09:28 7.97519 95.88801 21815 ft 338 kts 295°
2026-04-20 09:28 7.98506 95.86650 21818 ft 338 kts 295°
2026-04-20 09:28 7.99492 95.84497 21817 ft 338 kts 295°
2026-04-20 09:28 8.00477 95.82347 21817 ft 337 kts 295°
2026-04-20 09:29 8.01464 95.80193 21815 ft 338 kts 295°
2026-04-20 09:29 8.02117 95.78768 21818 ft 338 kts 295°
2026-04-20 09:29 8.03103 95.76614 21816 ft 338 kts 295°
2026-04-20 09:29 8.04087 95.74463 21815 ft 338 kts 295°
2026-04-20 09:30 8.05073 95.72310 21817 ft 338 kts 295°
2026-04-20 09:30 8.06057 95.70159 21815 ft 338 kts 295°
2026-04-20 09:30 8.07043 95.68004 21818 ft 338 kts 295°
2026-04-20 09:30 8.08027 95.65853 21817 ft 338 kts 295°
2026-04-20 09:31 8.09014 95.63696 21818 ft 338 kts 295°
2026-04-20 09:31 8.09996 95.61549 21818 ft 338 kts 295°
2026-04-20 09:31 8.10982 95.59392 21816 ft 338 kts 295°
2026-04-20 09:31 8.11957 95.57259 21814 ft 339 kts 295°
2026-04-20 09:32 8.12944 95.55098 21818 ft 339 kts 295°
2026-04-20 09:32 8.13931 95.52938 21824 ft 338 kts 295°
2026-04-20 09:32 8.14919 95.50777 21824 ft 339 kts 295°
2026-04-20 09:32 8.15903 95.48622 21827 ft 339 kts 295°
2026-04-20 09:33 8.16890 95.46461 21827 ft 339 kts 295°
2026-04-20 09:33 8.17872 95.44312 21827 ft 338 kts 295°
2026-04-20 09:33 8.18856 95.42158 21827 ft 338 kts 295°
2026-04-20 09:33 8.19841 95.39998 21830 ft 338 kts 295°
2026-04-20 09:34 8.20827 95.37838 21836 ft 338 kts 295°
2026-04-20 09:34 8.21813 95.35679 21837 ft 338 kts 295°
2026-04-20 09:34 8.23772 95.31384 21839 ft 339 kts 295°
2026-04-20 09:35 8.24757 95.29226 21836 ft 339 kts 295°
2026-04-20 09:35 8.25743 95.27063 21832 ft 339 kts 295°
2026-04-20 09:35 8.26729 95.24901 21835 ft 339 kts 295°
2026-04-20 09:35 8.27713 95.22742 21835 ft 339 kts 295°
2026-04-20 09:36 8.28702 95.20573 21832 ft 339 kts 295°
2026-04-20 09:36 8.29686 95.18416 21833 ft 339 kts 295°
2026-04-20 09:36 8.30671 95.16253 21831 ft 339 kts 295°
2026-04-20 09:36 8.31658 95.14088 21840 ft 339 kts 295°
2026-04-20 09:37 8.32629 95.11953 21835 ft 338 kts 295°
2026-04-20 09:37 8.33614 95.09792 21835 ft 338 kts 295°
2026-04-20 09:37 8.34600 95.07627 21839 ft 338 kts 295°
2026-04-20 09:37 8.35582 95.05471 21835 ft 338 kts 295°
2026-04-20 09:38 8.36562 95.03318 21836 ft 338 kts 295°
2026-04-20 09:38 8.37546 95.01157 21837 ft 338 kts 295°
2026-04-20 09:38 8.38531 94.98993 21837 ft 338 kts 295°
2026-04-20 09:38 8.39499 94.96865 21833 ft 338 kts 295°
2026-04-20 09:39 8.40481 94.94705 21834 ft 338 kts 295°
2026-04-20 09:39 8.41460 94.92552 21833 ft 338 kts 295°
2026-04-20 09:39 8.42448 94.90380 21834 ft 338 kts 295°
2026-04-20 09:39 8.43424 94.88234 21834 ft 338 kts 295°
2026-04-20 09:40 8.44407 94.86072 21833 ft 338 kts 295°
2026-04-20 09:40 8.45388 94.83915 21832 ft 338 kts 295°
2026-04-20 09:40 8.46369 94.81755 21833 ft 338 kts 295°
2026-04-20 09:40 8.47348 94.79600 21833 ft 338 kts 295°
2026-04-20 09:41 8.48332 94.77436 21834 ft 338 kts 295°
2026-04-20 09:41 8.49310 94.75281 21835 ft 338 kts 295°
2026-04-20 09:41 8.50291 94.73121 21833 ft 338 kts 295°
2026-04-20 09:41 8.51268 94.70970 21832 ft 337 kts 295°
2026-04-20 09:42 8.52246 94.68817 21834 ft 337 kts 295°
2026-04-20 09:42 8.53225 94.66660 21834 ft 337 kts 295°
2026-04-20 09:42 8.54190 94.64531 21834 ft 338 kts 295°
2026-04-20 09:42 8.55172 94.62367 21835 ft 338 kts 295°
2026-04-20 09:43 8.56152 94.60207 21837 ft 338 kts 295°
2026-04-20 09:43 8.57130 94.58051 21840 ft 338 kts 295°
2026-04-20 09:43 8.58115 94.55878 21837 ft 338 kts 295°
2026-04-20 09:43 8.59095 94.53717 21831 ft 338 kts 295°
2026-04-20 09:44 8.60074 94.51560 21835 ft 338 kts 295°
2026-04-20 09:44 8.61051 94.49405 21832 ft 338 kts 295°
2026-04-20 09:44 8.62030 94.47242 21833 ft 338 kts 295°
2026-04-20 09:44 8.63008 94.45083 21834 ft 338 kts 295°
2026-04-20 09:45 8.63987 94.42923 21836 ft 338 kts 295°
2026-04-20 09:45 8.64968 94.40757 21832 ft 338 kts 295°
2026-04-20 09:45 8.65933 94.38628 21833 ft 338 kts 295°
2026-04-20 09:45 8.66912 94.36465 21835 ft 338 kts 295°
2026-04-20 09:46 8.67892 94.34300 21834 ft 338 kts 295°
2026-04-20 09:46 8.68872 94.32134 21833 ft 338 kts 295°
2026-04-20 09:46 8.69850 94.29970 21832 ft 338 kts 295°
2026-04-20 09:46 8.70826 94.27814 21835 ft 338 kts 295°
2026-04-20 09:47 8.71806 94.25647 21833 ft 338 kts 295°
2026-04-20 09:47 8.72786 94.23482 21833 ft 338 kts 295°
2026-04-20 09:47 8.73751 94.21349 21836 ft 338 kts 295°
2026-04-20 09:47 8.74730 94.19184 21834 ft 338 kts 295°
2026-04-20 09:48 8.75709 94.17018 21835 ft 338 kts 295°
2026-04-20 09:48 8.76687 94.14855 21831 ft 338 kts 295°
2026-04-20 09:48 8.77662 94.12697 21837 ft 338 kts 295°
2026-04-20 09:48 8.78640 94.10533 21837 ft 338 kts 295°
2026-04-20 09:49 8.79607 94.08391 21832 ft 338 kts 295°
2026-04-20 09:49 8.80583 94.06230 21834 ft 338 kts 295°
2026-04-20 09:49 8.81559 94.04071 21836 ft 338 kts 295°
2026-04-20 09:49 8.82538 94.01900 21837 ft 338 kts 295°
2026-04-20 09:50 8.83515 93.99737 21832 ft 338 kts 295°
2026-04-20 09:50 8.84527 93.97584 21833 ft 338 kts 296°
2026-04-20 09:50 8.85558 93.95444 21832 ft 338 kts 296°
2026-04-20 09:50 8.86593 93.93305 21835 ft 338 kts 296°
2026-04-20 09:51 8.87632 93.91163 21836 ft 338 kts 296°
2026-04-20 09:51 8.88652 93.89060 21833 ft 338 kts 296°
2026-04-20 09:51 8.89691 93.86921 21835 ft 339 kts 296°
2026-04-20 09:51 8.90732 93.84775 21840 ft 339 kts 296°
2026-04-20 09:52 8.91775 93.82627 21833 ft 339 kts 296°
2026-04-20 09:52 8.92815 93.80481 21837 ft 339 kts 296°
2026-04-20 09:52 8.93855 93.78337 21833 ft 339 kts 296°
2026-04-20 09:52 8.94896 93.76192 21838 ft 339 kts 296°
2026-04-20 09:53 8.95923 93.74074 21836 ft 339 kts 296°
2026-04-20 09:53 8.96976 93.71901 21836 ft 339 kts 296°
2026-04-20 09:53 8.97999 93.69791 21837 ft 339 kts 296°
2026-04-20 09:53 8.99038 93.67648 21835 ft 339 kts 296°
2026-04-20 09:54 9.00084 93.65489 21836 ft 340 kts 296°
2026-04-20 09:54 9.01129 93.63332 21831 ft 341 kts 296°
2026-04-20 09:54 9.02155 93.61213 21834 ft 340 kts 296°
2026-04-20 09:54 9.03198 93.59059 21840 ft 340 kts 296°
2026-04-20 09:55 9.04237 93.56913 21834 ft 340 kts 296°
2026-04-20 09:55 9.05278 93.54760 21832 ft 340 kts 296°
2026-04-20 09:55 9.06316 93.52613 21835 ft 340 kts 296°
2026-04-20 09:55 9.07358 93.50461 21833 ft 340 kts 296°
2026-04-20 09:56 9.08398 93.48311 21838 ft 340 kts 296°
2026-04-20 09:56 9.09436 93.46163 21830 ft 340 kts 296°
2026-04-20 09:56 9.10476 93.44012 21835 ft 340 kts 296°
2026-04-20 09:56 9.11517 93.41858 21838 ft 340 kts 296°
2026-04-20 09:57 9.12560 93.39702 21832 ft 340 kts 296°
2026-04-20 09:57 9.13598 93.37554 21837 ft 340 kts 296°
2026-04-20 09:57 9.14637 93.35404 21840 ft 340 kts 296°
2026-04-20 09:57 9.15677 93.33250 21837 ft 340 kts 296°
2026-04-20 09:58 9.16716 93.31098 21835 ft 340 kts 296°
2026-04-20 09:58 9.17754 93.28946 21840 ft 340 kts 296°
2026-04-20 09:58 9.18779 93.26824 21835 ft 340 kts 296°
2026-04-20 09:58 9.19830 93.24645 21933 ft 336 kts 296°
2026-04-20 09:59 9.20839 93.22553 22247 ft 327 kts 296°
2026-04-20 09:59 9.21817 93.20525 22429 ft 323 kts 296°
2026-04-20 09:59 9.22801 93.18487 22525 ft 323 kts 296°
2026-04-20 09:59 9.23788 93.16440 22633 ft 323 kts 296°
2026-04-20 10:00 9.24775 93.14393 22712 ft 324 kts 296°
2026-04-20 10:00 9.25777 93.12315 22803 ft 325 kts 296°
2026-04-20 10:00 9.26768 93.10258 22899 ft 325 kts 296°
2026-04-20 10:00 9.27748 93.08223 22993 ft 326 kts 296°
2026-04-20 10:01 9.28746 93.06152 23081 ft 326 kts 296°
2026-04-20 10:01 9.29741 93.04086 23162 ft 327 kts 296°
2026-04-20 10:01 9.30737 93.02019 23236 ft 327 kts 296°
2026-04-20 10:01 9.31738 92.99940 23320 ft 328 kts 296°
2026-04-20 10:02 9.32738 92.97861 23401 ft 328 kts 296°
2026-04-20 10:02 9.33737 92.95784 23468 ft 329 kts 296°
2026-04-20 10:02 9.34741 92.93698 23528 ft 329 kts 296°
2026-04-20 10:02 9.35744 92.91614 23601 ft 330 kts 296°
2026-04-20 10:03 9.36749 92.89526 23667 ft 330 kts 296°
2026-04-20 10:03 9.37754 92.87434 23740 ft 330 kts 296°
2026-04-20 10:03 9.38762 92.85339 23794 ft 331 kts 296°
2026-04-20 10:03 9.39770 92.83240 23833 ft 332 kts 296°
2026-04-20 10:04 9.40780 92.81139 23840 ft 334 kts 296°
2026-04-20 10:04 9.41799 92.79018 23838 ft 336 kts 296°
2026-04-20 10:04 9.42823 92.76888 23837 ft 337 kts 296°
2026-04-20 10:04 9.43851 92.74748 23837 ft 339 kts 296°
2026-04-20 10:05 9.44884 92.72595 23837 ft 340 kts 296°
2026-04-20 10:05 9.45919 92.70439 23836 ft 340 kts 296°
2026-04-20 10:05 9.46954 92.68281 23836 ft 341 kts 296°
2026-04-20 10:05 9.47978 92.66150 23837 ft 342 kts 296°
2026-04-20 10:06 9.49018 92.63984 23836 ft 342 kts 296°
2026-04-20 10:06 9.50063 92.61807 23836 ft 343 kts 296°
2026-04-20 10:06 9.51106 92.59632 23837 ft 343 kts 296°
2026-04-20 10:06 9.52149 92.57459 23836 ft 344 kts 296°
2026-04-20 10:07 9.53198 92.55270 23836 ft 344 kts 296°
2026-04-20 10:07 9.54245 92.53087 23835 ft 345 kts 296°
2026-04-20 10:07 9.55295 92.50895 23835 ft 345 kts 296°
2026-04-20 10:07 9.56343 92.48708 23836 ft 345 kts 296°
2026-04-20 10:08 9.57391 92.46522 23836 ft 345 kts 296°
2026-04-20 10:08 9.58441 92.44330 23836 ft 345 kts 296°
2026-04-20 10:08 9.59489 92.42142 23837 ft 345 kts 296°
2026-04-20 10:08 9.60539 92.39950 23836 ft 346 kts 296°
2026-04-20 10:09 9.61586 92.37761 23836 ft 345 kts 296°
2026-04-20 10:09 9.62620 92.35602 23836 ft 345 kts 296°
2026-04-20 10:09 9.63658 92.33433 23835 ft 344 kts 296°
2026-04-20 10:09 9.64700 92.31255 23836 ft 344 kts 296°
2026-04-20 10:10 9.65741 92.29081 23836 ft 343 kts 296°
2026-04-20 10:10 9.66782 92.26904 23836 ft 343 kts 296°
2026-04-20 10:10 9.67822 92.24728 23836 ft 342 kts 296°
2026-04-20 10:10 9.68861 92.22555 23836 ft 342 kts 296°
2026-04-20 10:11 9.69899 92.20382 23836 ft 342 kts 296°
2026-04-20 10:11 9.70940 92.18205 23836 ft 342 kts 296°
2026-04-20 10:11 9.71962 92.16066 23836 ft 341 kts 296°
2026-04-20 10:11 9.73009 92.13875 23836 ft 341 kts 296°
2026-04-20 10:12 9.74030 92.11737 23836 ft 341 kts 296°
2026-04-20 10:12 9.75065 92.09571 23835 ft 341 kts 296°
2026-04-20 10:12 9.76096 92.07410 23836 ft 341 kts 296°
2026-04-20 10:12 9.77128 92.05248 23836 ft 341 kts 296°
2026-04-20 10:13 9.78160 92.03086 23835 ft 341 kts 296°
2026-04-20 10:13 9.79194 92.00919 23836 ft 341 kts 296°
2026-04-20 10:13 9.80226 91.98756 23836 ft 341 kts 296°
2026-04-20 10:13 9.81252 91.96604 23836 ft 341 kts 296°
2026-04-20 10:14 9.82285 91.94439 23836 ft 341 kts 296°
2026-04-20 10:14 9.83316 91.92277 23836 ft 340 kts 296°
2026-04-20 10:14 9.84000 91.90842 23836 ft 340 kts 296°
2026-04-20 10:14 9.85028 91.88686 23835 ft 340 kts 296°
2026-04-20 10:15 9.86060 91.86519 23836 ft 340 kts 296°
2026-04-20 10:15 9.87091 91.84356 23836 ft 340 kts 296°
2026-04-20 10:15 9.88118 91.82199 23836 ft 340 kts 296°
2026-04-20 10:15 9.89148 91.80037 23837 ft 340 kts 296°
2026-04-20 10:16 9.90175 91.77877 23836 ft 340 kts 296°
2026-04-20 10:16 9.91205 91.75716 23837 ft 340 kts 296°
2026-04-20 10:16 9.92233 91.73556 23836 ft 340 kts 296°
2026-04-20 10:16 9.93262 91.71395 23835 ft 340 kts 296°
2026-04-20 10:17 9.94290 91.69233 23836 ft 340 kts 296°
2026-04-20 10:17 9.95317 91.67075 23836 ft 340 kts 296°
2026-04-20 10:17 9.96348 91.64907 23836 ft 340 kts 296°
2026-04-20 10:17 9.97376 91.62745 23836 ft 340 kts 296°
2026-04-20 10:18 9.98406 91.60578 23836 ft 340 kts 296°
2026-04-20 10:18 9.99434 91.58415 23836 ft 340 kts 296°
2026-04-20 10:18 10.00462 91.56252 23836 ft 340 kts 296°
2026-04-20 10:18 10.01478 91.54113 23836 ft 340 kts 296°
2026-04-20 10:19 10.02505 91.51951 23835 ft 340 kts 296°
2026-04-20 10:19 10.03536 91.49781 23836 ft 341 kts 296°
2026-04-20 10:19 10.04565 91.47614 23836 ft 341 kts 296°
2026-04-20 10:19 10.05593 91.45447 23836 ft 341 kts 296°
2026-04-20 10:20 10.06623 91.43279 23836 ft 342 kts 296°
2026-04-20 10:20 10.07655 91.41103 23836 ft 342 kts 296°
2026-04-20 10:20 10.08684 91.38935 23835 ft 342 kts 296°
2026-04-20 10:20 10.09714 91.36762 23836 ft 342 kts 296°
2026-04-20 10:21 10.10745 91.34589 23836 ft 342 kts 296°
2026-04-20 10:21 10.11778 91.32411 23836 ft 342 kts 296°
2026-04-20 10:21 10.12809 91.30234 23836 ft 342 kts 296°
2026-04-20 10:21 10.13841 91.28058 23836 ft 342 kts 296°
2026-04-20 10:22 10.14873 91.25879 23836 ft 342 kts 296°
2026-04-20 10:22 10.15904 91.23704 23836 ft 342 kts 296°
2026-04-20 10:22 10.16936 91.21525 23835 ft 342 kts 296°
2026-04-20 10:22 10.17969 91.19345 23836 ft 342 kts 296°
2026-04-20 10:23 10.18999 91.17168 23836 ft 343 kts 296°
2026-04-20 10:23 10.20033 91.14984 23836 ft 343 kts 296°
2026-04-20 10:23 10.21064 91.12804 23835 ft 343 kts 296°
2026-04-20 10:23 10.22096 91.10625 23836 ft 343 kts 296°
2026-04-20 10:24 10.23131 91.08437 23836 ft 343 kts 296°
2026-04-20 10:24 10.24165 91.06251 23836 ft 343 kts 296°
2026-04-20 10:24 10.25196 91.04070 23835 ft 342 kts 296°
2026-04-20 10:24 10.26228 91.01888 23836 ft 342 kts 296°
2026-04-20 10:25 10.27257 90.99710 23835 ft 343 kts 296°
2026-04-20 10:25 10.28291 90.97522 23836 ft 343 kts 296°
2026-04-20 10:25 10.29322 90.95341 23837 ft 343 kts 296°
2026-04-20 10:25 10.30355 90.93153 23836 ft 343 kts 296°
2026-04-20 10:26 10.31389 90.90964 23836 ft 343 kts 296°
2026-04-20 10:26 10.32411 90.88801 23835 ft 343 kts 296°
2026-04-20 10:26 10.33444 90.86613 23836 ft 343 kts 296°
2026-04-20 10:26 10.34473 90.84432 23836 ft 343 kts 296°
2026-04-20 10:27 10.35507 90.82242 23835 ft 343 kts 296°
2026-04-20 10:27 10.36540 90.80051 23836 ft 343 kts 296°
2026-04-20 10:27 10.37573 90.77862 23836 ft 343 kts 296°
2026-04-20 10:27 10.38604 90.75676 23836 ft 343 kts 296°
2026-04-20 10:28 10.39636 90.73488 23835 ft 343 kts 296°
2026-04-20 10:28 10.40668 90.71298 23836 ft 344 kts 296°
2026-04-20 10:28 10.41703 90.69103 23837 ft 345 kts 296°
2026-04-20 10:28 10.42738 90.66905 23836 ft 344 kts 296°
2026-04-20 10:29 10.43771 90.64712 23836 ft 344 kts 296°
2026-04-20 10:29 10.44804 90.62519 23836 ft 344 kts 296°
2026-04-20 10:29 10.45838 90.60321 23837 ft 344 kts 296°
2026-04-20 10:29 10.46871 90.58126 23836 ft 344 kts 296°
2026-04-20 10:30 10.47906 90.55930 23836 ft 344 kts 296°
2026-04-20 10:30 10.48937 90.53739 23835 ft 344 kts 296°
2026-04-20 10:30 10.49969 90.51546 23836 ft 344 kts 296°
2026-04-20 10:30 10.51001 90.49353 23836 ft 344 kts 296°
2026-04-20 10:31 10.52032 90.47160 23836 ft 344 kts 296°
2026-04-20 10:31 10.53065 90.44963 23836 ft 344 kts 296°
2026-04-20 10:31 10.54096 90.42769 23835 ft 344 kts 296°
2026-04-20 10:31 10.55129 90.40573 23835 ft 344 kts 296°
2026-04-20 10:32 10.56163 90.38377 23837 ft 345 kts 296°
2026-04-20 10:32 10.57194 90.36179 23836 ft 344 kts 296°
2026-04-20 10:32 10.58212 90.34010 23835 ft 344 kts 296°
2026-04-20 10:32 10.59255 90.31788 23837 ft 344 kts 296°
2026-04-20 10:33 10.60273 90.29620 23835 ft 344 kts 296°
2026-04-20 10:33 10.61304 90.27424 23835 ft 344 kts 296°
2026-04-20 10:33 10.62334 90.25229 23835 ft 344 kts 296°
2026-04-20 10:33 10.63364 90.23033 23836 ft 344 kts 296°
2026-04-20 10:34 10.64395 90.20836 23836 ft 345 kts 296°
2026-04-20 10:34 10.65428 90.18631 23835 ft 344 kts 296°
2026-04-20 10:34 10.66458 90.16435 23835 ft 345 kts 296°
2026-04-20 10:35 10.68520 90.12038 23837 ft 345 kts 296°
2026-04-20 10:35 10.69553 90.09833 23836 ft 345 kts 296°
2026-04-20 10:35 10.70587 90.07626 23836 ft 346 kts 296°
2026-04-20 10:35 10.71620 90.05420 23835 ft 345 kts 296°
2026-04-20 10:36 10.72653 90.03215 23835 ft 345 kts 296°
2026-04-20 10:36 10.73784 90.01067 23836 ft 345 kts 303°
2026-04-20 10:36 10.75208 89.99106 23836 ft 344 kts 311°
2026-04-20 10:36 10.76845 89.97334 23837 ft 344 kts 316°
2026-04-20 10:37 10.78553 89.95627 23836 ft 344 kts 317°
2026-04-20 10:37 10.80283 89.93936 23837 ft 345 kts 317°
2026-04-20 10:37 10.82022 89.92257 23835 ft 345 kts 318°
2026-04-20 10:37 10.83746 89.90603 23836 ft 344 kts 318°
2026-04-20 10:38 10.85482 89.88941 23835 ft 344 kts 318°
2026-04-20 10:38 10.87252 89.87248 23835 ft 344 kts 318°
2026-04-20 10:38 10.88996 89.85580 23836 ft 345 kts 318°
2026-04-20 10:38 10.90724 89.83928 23836 ft 345 kts 318°
2026-04-20 10:39 10.92475 89.82254 23835 ft 346 kts 318°
2026-04-20 10:39 10.94229 89.80577 23836 ft 346 kts 318°
2026-04-20 10:39 10.95983 89.78899 23836 ft 345 kts 318°
2026-04-20 10:39 10.97732 89.77226 23836 ft 345 kts 318°
2026-04-20 10:40 10.99482 89.75551 23835 ft 346 kts 318°
2026-04-20 10:40 11.01233 89.73874 23835 ft 346 kts 318°
2026-04-20 10:40 11.02984 89.72197 23836 ft 346 kts 318°
2026-04-20 10:40 11.04735 89.70520 23836 ft 346 kts 318°
2026-04-20 10:41 11.06486 89.68843 23836 ft 346 kts 318°
2026-04-20 10:41 11.08239 89.67163 23836 ft 346 kts 318°
2026-04-20 10:41 11.09989 89.65487 23836 ft 346 kts 318°
2026-04-20 10:41 11.11746 89.63804 23837 ft 347 kts 318°
2026-04-20 10:42 11.13505 89.62118 23836 ft 347 kts 318°
2026-04-20 10:42 11.15261 89.60434 23836 ft 347 kts 318°
2026-04-20 10:42 11.17012 89.58753 23836 ft 347 kts 318°
2026-04-20 10:42 11.18769 89.57068 23835 ft 346 kts 318°
2026-04-20 10:43 11.20526 89.55383 23836 ft 347 kts 318°
2026-04-20 10:43 11.22281 89.53698 23835 ft 347 kts 318°
2026-04-20 10:43 11.24014 89.52034 23836 ft 347 kts 318°
2026-04-20 10:43 11.25769 89.50350 23836 ft 347 kts 318°
2026-04-20 10:44 11.27525 89.48664 23836 ft 347 kts 318°
2026-04-20 10:44 11.29279 89.46980 23836 ft 347 kts 318°
2026-04-20 10:44 11.31034 89.45293 23836 ft 347 kts 318°
2026-04-20 10:44 11.32790 89.43606 23835 ft 347 kts 318°
2026-04-20 10:45 11.34547 89.41918 23836 ft 347 kts 318°
2026-04-20 10:45 11.36299 89.40233 23836 ft 348 kts 318°
2026-04-20 10:45 11.38058 89.38541 23835 ft 348 kts 318°
2026-04-20 10:45 11.39820 89.36847 23836 ft 348 kts 318°
2026-04-20 10:46 11.41580 89.35154 23836 ft 348 kts 318°
2026-04-20 10:46 11.43336 89.33465 23836 ft 348 kts 318°
2026-04-20 10:46 11.45099 89.31769 23836 ft 348 kts 318°
2026-04-20 10:46 11.46857 89.30077 23836 ft 348 kts 318°
2026-04-20 10:47 11.48613 89.28386 23835 ft 347 kts 318°
2026-04-20 10:47 11.50371 89.26693 23836 ft 348 kts 318°
2026-04-20 10:47 11.52130 89.24999 23836 ft 348 kts 318°
2026-04-20 10:47 11.53888 89.23307 23835 ft 348 kts 318°
2026-04-20 10:48 11.55647 89.21613 23836 ft 348 kts 318°
2026-04-20 10:48 11.57404 89.19919 23836 ft 348 kts 318°
2026-04-20 10:48 11.59165 89.18221 23836 ft 347 kts 318°
2026-04-20 10:48 11.60899 89.16550 23836 ft 348 kts 318°
2026-04-20 10:49 11.62684 89.14830 23836 ft 348 kts 318°
2026-04-20 10:49 11.64442 89.13133 23835 ft 348 kts 318°
2026-04-20 10:49 11.66176 89.11461 23836 ft 348 kts 318°
2026-04-20 10:49 11.67955 89.09745 23836 ft 348 kts 318°
2026-04-20 10:50 11.69716 89.08047 23829 ft 348 kts 318°
2026-04-20 10:50 11.71465 89.06358 23826 ft 347 kts 318°
2026-04-20 10:50 11.73222 89.04662 23826 ft 348 kts 318°
2026-04-20 10:50 11.74957 89.02987 23825 ft 348 kts 318°
2026-04-20 10:51 11.76712 89.01292 23824 ft 348 kts 318°
2026-04-20 10:51 11.78470 88.99594 23825 ft 348 kts 318°
2026-04-20 10:51 11.80257 88.97868 23828 ft 349 kts 318°
2026-04-20 10:51 11.82023 88.96161 23826 ft 349 kts 318°
2026-04-20 10:52 11.83785 88.94458 23828 ft 349 kts 318°
2026-04-20 10:52 11.85544 88.92758 23818 ft 349 kts 318°
2026-04-20 10:52 11.87282 88.91079 23817 ft 349 kts 318°
2026-04-20 10:52 11.89041 88.89377 23816 ft 348 kts 318°
2026-04-20 10:53 11.90797 88.87679 23817 ft 348 kts 318°
2026-04-20 10:53 11.92561 88.85972 23817 ft 349 kts 318°
2026-04-20 10:53 11.94321 88.84270 23818 ft 348 kts 318°
2026-04-20 10:53 11.96081 88.82566 23819 ft 349 kts 318°
2026-04-20 10:54 11.97842 88.80862 23817 ft 349 kts 318°
2026-04-20 10:54 11.99604 88.79156 23815 ft 349 kts 318°
2026-04-20 10:54 12.01367 88.77449 23819 ft 349 kts 318°
2026-04-20 10:54 12.03129 88.75742 23818 ft 349 kts 317°
2026-04-20 10:55 12.04889 88.74037 23819 ft 349 kts 317°
2026-04-20 10:55 12.06656 88.72326 23818 ft 349 kts 318°
2026-04-20 10:55 12.08384 88.70625 23814 ft 349 kts 315°
2026-04-20 10:55 12.09981 88.68710 23817 ft 351 kts 308°
2026-04-20 10:56 12.11362 88.66690 23818 ft 352 kts 303°
2026-04-20 10:56 12.12659 88.64575 23815 ft 351 kts 302°
2026-04-20 10:56 12.13934 88.62444 23816 ft 351 kts 301°
2026-04-20 10:56 12.15195 88.60312 23819 ft 351 kts 301°
2026-04-20 10:57 12.16455 88.58173 23818 ft 351 kts 301°
2026-04-20 10:57 12.17715 88.56027 23814 ft 351 kts 301°
2026-04-20 10:57 12.18953 88.53917 23818 ft 351 kts 301°
2026-04-20 10:57 12.20210 88.51771 23821 ft 351 kts 301°
2026-04-20 10:58 12.21463 88.49633 23816 ft 351 kts 301°
2026-04-20 10:58 12.22718 88.47489 23819 ft 351 kts 301°
2026-04-20 10:58 12.23974 88.45343 23817 ft 352 kts 301°
2026-04-20 10:58 12.25229 88.43199 23816 ft 351 kts 301°
2026-04-20 10:59 12.26482 88.41056 23819 ft 351 kts 301°
2026-04-20 10:59 12.27313 88.39635 23816 ft 351 kts 301°
2026-04-20 10:59 12.28582 88.37465 23814 ft 351 kts 301°
2026-04-20 10:59 12.29822 88.35344 23816 ft 351 kts 301°
2026-04-20 11:00 12.31078 88.33195 23817 ft 351 kts 301°
2026-04-20 11:00 12.32329 88.31054 23818 ft 351 kts 301°
2026-04-20 11:00 12.33600 88.28879 23819 ft 351 kts 301°
2026-04-20 11:00 12.34837 88.26761 23816 ft 351 kts 301°
2026-04-20 11:01 12.36089 88.24617 23813 ft 351 kts 301°
2026-04-20 11:01 12.37344 88.22467 23800 ft 351 kts 301°
2026-04-20 11:01 12.38598 88.20319 23813 ft 351 kts 301°
2026-04-20 11:01 12.39839 88.18194 23811 ft 351 kts 301°
2026-04-20 11:02 12.41091 88.16046 23803 ft 351 kts 301°
2026-04-20 11:02 12.42342 88.13901 23802 ft 351 kts 301°
2026-04-20 11:02 12.43592 88.11757 23812 ft 351 kts 301°
2026-04-20 11:02 12.44844 88.09609 23813 ft 351 kts 301°
2026-04-20 11:03 12.46098 88.07457 23806 ft 351 kts 301°
2026-04-20 11:03 12.47350 88.05307 23799 ft 351 kts 301°
2026-04-20 11:03 12.48584 88.03190 23807 ft 352 kts 301°
2026-04-20 11:03 12.49853 88.01011 23813 ft 351 kts 301°
2026-04-20 11:04 12.51085 87.98897 23815 ft 351 kts 301°
2026-04-20 11:04 12.52336 87.96747 23801 ft 352 kts 301°
2026-04-20 11:04 12.53588 87.94596 23809 ft 351 kts 301°
2026-04-20 11:04 12.54836 87.92450 23813 ft 350 kts 301°
2026-04-20 11:05 12.56084 87.90306 23812 ft 350 kts 301°
2026-04-20 11:05 12.57328 87.88164 23802 ft 350 kts 301°
2026-04-20 11:05 12.58575 87.86020 23810 ft 350 kts 301°
2026-04-20 11:05 12.59822 87.83875 23812 ft 350 kts 301°
2026-04-20 11:06 12.61070 87.81728 23814 ft 350 kts 301°
2026-04-20 11:06 12.62302 87.79607 23810 ft 350 kts 301°
2026-04-20 11:06 12.63547 87.77464 23805 ft 350 kts 301°
2026-04-20 11:06 12.64808 87.75291 23797 ft 350 kts 301°
2026-04-20 11:07 12.66037 87.73175 23811 ft 350 kts 301°
2026-04-20 11:07 12.67278 87.71037 23809 ft 349 kts 301°
2026-04-20 11:07 12.68522 87.68894 23801 ft 349 kts 301°
2026-04-20 11:07 12.69761 87.66757 23812 ft 349 kts 301°
2026-04-20 11:08 12.71003 87.64617 23811 ft 349 kts 301°
2026-04-20 11:08 12.72243 87.62478 23814 ft 349 kts 301°
2026-04-20 11:08 12.73482 87.60342 23805 ft 349 kts 301°
2026-04-20 11:08 12.74720 87.58204 23812 ft 349 kts 301°
2026-04-20 11:09 12.75923 87.56129 23811 ft 349 kts 301°
2026-04-20 11:09 12.77161 87.53992 23813 ft 348 kts 301°
2026-04-20 11:09 12.78395 87.51861 23800 ft 348 kts 301°
2026-04-20 11:09 12.79630 87.49727 23803 ft 348 kts 301°
2026-04-20 11:10 12.80867 87.47592 23815 ft 348 kts 301°
2026-04-20 11:10 12.82104 87.45455 23815 ft 348 kts 301°
2026-04-20 11:10 12.83338 87.43322 23809 ft 348 kts 301°
2026-04-20 11:10 12.84573 87.41187 23801 ft 348 kts 301°
2026-04-20 11:11 12.85809 87.39050 23802 ft 348 kts 300°
2026-04-20 11:11 12.87030 87.36937 23803 ft 348 kts 300°
2026-04-20 11:11 12.88277 87.34781 23809 ft 347 kts 300°
2026-04-20 11:11 12.89492 87.32678 23813 ft 347 kts 300°
2026-04-20 11:12 12.90715 87.30559 23809 ft 347 kts 300°
2026-04-20 11:12 12.91945 87.28432 23809 ft 347 kts 300°
2026-04-20 11:12 12.93178 87.26297 23801 ft 347 kts 300°
2026-04-20 11:12 12.94408 87.24165 23811 ft 347 kts 300°
2026-04-20 11:13 12.95639 87.22035 23813 ft 347 kts 300°
2026-04-20 11:13 12.96869 87.19902 23803 ft 347 kts 300°
2026-04-20 11:13 12.98099 87.17770 23800 ft 347 kts 300°
2026-04-20 11:13 12.99328 87.15638 23797 ft 347 kts 300°
2026-04-20 11:14 13.00554 87.13511 23800 ft 346 kts 300°
2026-04-20 11:14 13.01782 87.11381 23800 ft 346 kts 300°
2026-04-20 11:14 13.03007 87.09257 23799 ft 346 kts 300°
2026-04-20 11:14 13.04231 87.07134 23801 ft 346 kts 300°
2026-04-20 11:15 13.05457 87.05006 23799 ft 346 kts 300°
2026-04-20 11:15 13.06681 87.02881 23794 ft 346 kts 300°
2026-04-20 11:15 13.07905 87.00756 23796 ft 346 kts 300°
2026-04-20 11:15 13.09115 86.98654 23797 ft 346 kts 300°
2026-04-20 11:16 13.10339 86.96528 23796 ft 346 kts 300°
2026-04-20 11:16 13.11563 86.94401 23797 ft 346 kts 300°
2026-04-20 11:16 13.12784 86.92277 23795 ft 346 kts 300°
2026-04-20 11:16 13.14007 86.90149 23802 ft 345 kts 300°
2026-04-20 11:17 13.15225 86.88033 23799 ft 345 kts 300°
2026-04-20 11:17 13.16445 86.85910 23799 ft 345 kts 300°
2026-04-20 11:17 13.17665 86.83788 23800 ft 345 kts 300°
2026-04-20 11:17 13.18883 86.81668 23797 ft 345 kts 300°
2026-04-20 11:18 13.20100 86.79548 23794 ft 345 kts 300°
2026-04-20 11:18 13.21320 86.77424 23786 ft 345 kts 300°
2026-04-20 11:18 13.22539 86.75302 23792 ft 345 kts 300°
2026-04-20 11:18 13.23755 86.73183 23791 ft 345 kts 300°
2026-04-20 11:19 13.24972 86.71063 23788 ft 345 kts 300°
2026-04-20 11:19 13.26185 86.68947 23793 ft 343 kts 300°
2026-04-20 11:19 13.27397 86.66834 23785 ft 344 kts 300°
2026-04-20 11:19 13.28585 86.64763 23780 ft 344 kts 300°
2026-04-20 11:20 13.29781 86.62677 23779 ft 344 kts 300°
2026-04-20 11:20 13.30993 86.60561 23778 ft 344 kts 300°
2026-04-20 11:20 13.32208 86.58440 23778 ft 344 kts 300°
2026-04-20 11:20 13.33421 86.56324 23781 ft 344 kts 300°
2026-04-20 11:21 13.34634 86.54207 23780 ft 344 kts 300°
2026-04-20 11:21 13.35844 86.52092 23783 ft 343 kts 300°
2026-04-20 11:21 13.37053 86.49981 23781 ft 342 kts 300°
2026-04-20 11:21 13.38259 86.47873 23780 ft 342 kts 300°
2026-04-20 11:22 13.39467 86.45761 23780 ft 343 kts 300°
2026-04-20 11:22 13.40674 86.43651 23780 ft 342 kts 300°
2026-04-20 11:22 13.41880 86.41543 23780 ft 342 kts 300°
2026-04-20 11:22 13.43079 86.39447 23779 ft 342 kts 300°
2026-04-20 11:23 13.44286 86.37335 23780 ft 342 kts 300°
2026-04-20 11:23 13.45478 86.35250 23780 ft 342 kts 300°
2026-04-20 11:23 13.46681 86.33145 23779 ft 342 kts 300°
2026-04-20 11:23 13.47884 86.31038 23779 ft 341 kts 300°
2026-04-20 11:24 13.49085 86.28935 23779 ft 341 kts 300°
2026-04-20 11:24 13.50285 86.26832 23781 ft 341 kts 300°
2026-04-20 11:24 13.51485 86.24729 23779 ft 341 kts 300°
2026-04-20 11:24 13.52685 86.22626 23781 ft 341 kts 300°
2026-04-20 11:25 13.53885 86.20523 23779 ft 341 kts 300°
2026-04-20 11:25 13.55084 86.18420 23781 ft 341 kts 299°
2026-04-20 11:25 13.56285 86.16314 23781 ft 341 kts 299°
2026-04-20 11:25 13.57483 86.14212 23780 ft 341 kts 299°
2026-04-20 11:26 13.58681 86.12110 23782 ft 341 kts 299°
2026-04-20 11:26 13.59876 86.10013 23778 ft 341 kts 299°
2026-04-20 11:26 13.61059 86.07936 23781 ft 341 kts 299°
2026-04-20 11:26 13.62255 86.05836 23778 ft 341 kts 299°
2026-04-20 11:27 13.63449 86.03740 23773 ft 340 kts 299°
2026-04-20 11:27 13.64640 86.01646 23771 ft 340 kts 299°
2026-04-20 11:27 13.65836 85.99544 23771 ft 340 kts 299°
2026-04-20 11:27 13.67030 85.97446 23772 ft 339 kts 299°
2026-04-20 11:28 13.68222 85.95351 23772 ft 339 kts 299°
2026-04-20 11:28 13.69410 85.93261 23770 ft 339 kts 299°
2026-04-20 11:28 13.70604 85.91161 23771 ft 339 kts 299°
2026-04-20 11:28 13.71794 85.89068 23771 ft 339 kts 299°
2026-04-20 11:29 13.72983 85.86975 23769 ft 339 kts 299°
2026-04-20 11:29 13.74176 85.84875 23772 ft 339 kts 299°
2026-04-20 11:29 13.75366 85.82779 23770 ft 339 kts 299°
2026-04-20 11:29 13.76558 85.80680 23771 ft 339 kts 299°
2026-04-20 11:30 13.77747 85.78585 23770 ft 339 kts 299°
2026-04-20 11:30 13.78937 85.76489 23771 ft 339 kts 299°
2026-04-20 11:30 13.80131 85.74384 23770 ft 339 kts 299°
2026-04-20 11:30 13.81319 85.72289 23770 ft 339 kts 299°
2026-04-20 11:31 13.82508 85.70193 23770 ft 339 kts 299°
2026-04-20 11:31 13.83683 85.68119 23770 ft 339 kts 299°
2026-04-20 11:31 13.84873 85.66020 23772 ft 339 kts 299°
2026-04-20 11:31 13.86077 85.63895 23770 ft 339 kts 299°
2026-04-20 11:32 13.87249 85.61826 23771 ft 339 kts 299°
2026-04-20 11:32 13.88438 85.59727 23772 ft 339 kts 299°
2026-04-20 11:32 13.89594 85.57686 23772 ft 339 kts 299°
2026-04-20 11:32 13.90783 85.55585 23770 ft 339 kts 299°
2026-04-20 11:33 13.91971 85.53488 23771 ft 339 kts 299°
2026-04-20 11:33 13.93158 85.51389 23771 ft 339 kts 299°
2026-04-20 11:33 13.94339 85.49300 23770 ft 339 kts 299°
2026-04-20 11:33 13.95526 85.47201 23772 ft 339 kts 299°
2026-04-20 11:34 13.96715 85.45098 23771 ft 339 kts 299°
2026-04-20 11:34 13.97903 85.42996 23769 ft 339 kts 299°
2026-04-20 11:34 13.99088 85.40898 23771 ft 339 kts 299°
2026-04-20 11:34 14.00275 85.38798 23772 ft 339 kts 299°
2026-04-20 11:35 14.01460 85.36701 23770 ft 339 kts 299°
2026-04-20 11:35 14.02643 85.34605 23771 ft 338 kts 299°
2026-04-20 11:35 14.03822 85.32515 23770 ft 338 kts 298°
2026-04-20 11:35 14.05004 85.30422 23770 ft 338 kts 298°
2026-04-20 11:36 14.06168 85.28358 23769 ft 338 kts 298°
2026-04-20 11:36 14.07348 85.26265 23769 ft 337 kts 298°
2026-04-20 11:36 14.08525 85.24177 23771 ft 337 kts 298°
2026-04-20 11:36 14.09706 85.22084 23771 ft 337 kts 298°
2026-04-20 11:37 14.10883 85.19996 23770 ft 337 kts 298°
2026-04-20 11:37 14.13238 85.15815 23770 ft 337 kts 298°
2026-04-20 11:37 14.14415 85.13726 23771 ft 337 kts 298°
2026-04-20 11:38 14.15594 85.11633 23772 ft 337 kts 298°
2026-04-20 11:38 14.16767 85.09548 23772 ft 337 kts 298°
2026-04-20 11:38 14.17941 85.07461 23771 ft 336 kts 298°
2026-04-20 11:38 14.19114 85.05376 23771 ft 336 kts 298°
2026-04-20 11:39 14.20291 85.03284 23771 ft 336 kts 298°
2026-04-20 11:39 14.21462 85.01200 23770 ft 336 kts 298°
2026-04-20 11:39 14.22631 84.99120 23770 ft 336 kts 298°
2026-04-20 11:39 14.23805 84.97032 23771 ft 336 kts 298°
2026-04-20 11:40 14.24978 84.94945 23771 ft 336 kts 298°
2026-04-20 11:40 14.26148 84.92862 23771 ft 336 kts 298°
2026-04-20 11:40 14.27319 84.90775 23770 ft 336 kts 298°
2026-04-20 11:40 14.28487 84.88696 23770 ft 336 kts 298°
2026-04-20 11:41 14.29660 84.86606 23771 ft 335 kts 298°
2026-04-20 11:41 14.30829 84.84522 23771 ft 335 kts 298°
2026-04-20 11:41 14.31993 84.82438 23772 ft 335 kts 298°
2026-04-20 11:41 14.33136 84.80345 23771 ft 335 kts 297°
2026-04-20 11:42 14.34291 84.78252 23769 ft 335 kts 298°
2026-04-20 11:42 14.35452 84.76169 23771 ft 335 kts 298°
2026-04-20 11:42 14.36604 84.74111 23769 ft 335 kts 298°
2026-04-20 11:42 14.37773 84.72028 23769 ft 335 kts 298°
2026-04-20 11:43 14.38939 84.69951 23771 ft 335 kts 298°
2026-04-20 11:43 14.40109 84.67867 23770 ft 336 kts 298°
2026-04-20 11:43 14.41249 84.65836 23771 ft 335 kts 298°
2026-04-20 11:43 14.42417 84.63755 23771 ft 335 kts 298°
2026-04-20 11:44 14.43588 84.61668 23769 ft 335 kts 298°
2026-04-20 11:44 14.44753 84.59591 23769 ft 335 kts 298°
2026-04-20 11:44 14.45913 84.57523 23772 ft 335 kts 298°
2026-04-20 11:44 14.47077 84.55445 23772 ft 335 kts 298°
2026-04-20 11:45 14.47849 84.54070 23770 ft 334 kts 298°
2026-04-20 11:45 14.49012 84.51993 23772 ft 335 kts 298°
2026-04-20 11:45 14.50179 84.49910 23771 ft 335 kts 298°
2026-04-20 11:45 14.51342 84.47833 23771 ft 334 kts 298°
2026-04-20 11:46 14.52510 84.45746 23772 ft 334 kts 298°
2026-04-20 11:46 14.53671 84.43671 23770 ft 334 kts 298°
2026-04-20 11:46 14.54838 84.41585 23772 ft 334 kts 298°
2026-04-20 11:46 14.56000 84.39507 23770 ft 334 kts 298°
2026-04-20 11:47 14.57162 84.37428 23771 ft 334 kts 298°
2026-04-20 11:47 14.58328 84.35342 23771 ft 334 kts 298°
2026-04-20 11:47 14.59490 84.33261 23771 ft 334 kts 298°
2026-04-20 11:47 14.60650 84.31185 23771 ft 334 kts 298°
2026-04-20 11:48 14.61813 84.29101 23771 ft 334 kts 298°
2026-04-20 11:48 14.62965 84.27038 23769 ft 334 kts 298°
2026-04-20 11:48 14.64125 84.24959 23770 ft 334 kts 298°
2026-04-20 11:48 14.65287 84.22876 23770 ft 334 kts 298°
2026-04-20 11:49 14.66445 84.20799 23770 ft 334 kts 298°
2026-04-20 11:49 14.67592 84.18743 23771 ft 334 kts 298°
2026-04-20 11:49 14.68752 84.16663 23772 ft 334 kts 298°
2026-04-20 11:49 14.69910 84.14583 23770 ft 334 kts 298°
2026-04-20 11:50 14.71070 84.12500 23772 ft 334 kts 298°
2026-04-20 11:50 14.72226 84.10424 23771 ft 334 kts 298°
2026-04-20 11:50 14.73385 84.08340 23771 ft 333 kts 298°
2026-04-20 11:50 14.74541 84.06263 23769 ft 333 kts 298°
2026-04-20 11:51 14.75701 84.04179 23771 ft 334 kts 298°
2026-04-20 11:51 14.76845 84.02122 23772 ft 333 kts 298°
2026-04-20 11:51 14.78000 84.00045 23770 ft 333 kts 298°
2026-04-20 11:51 14.79155 83.97966 23772 ft 333 kts 298°
2026-04-20 11:52 14.80293 83.95919 23770 ft 330 kts 298°
2026-04-20 11:52 14.81439 83.93855 23770 ft 331 kts 298°
2026-04-20 11:52 14.82589 83.91784 23772 ft 331 kts 298°
2026-04-20 11:52 14.83736 83.89718 23770 ft 331 kts 298°
2026-04-20 11:53 14.84880 83.87657 23771 ft 330 kts 298°
2026-04-20 11:53 14.86023 83.85596 23770 ft 331 kts 298°
2026-04-20 11:53 14.87165 83.83539 23772 ft 331 kts 298°
2026-04-20 11:53 14.88311 83.81472 23770 ft 330 kts 298°
2026-04-20 11:54 14.89454 83.79410 23770 ft 330 kts 298°
2026-04-20 11:54 14.90597 83.77348 23770 ft 330 kts 298°
2026-04-20 11:54 14.91703 83.75350 23769 ft 330 kts 298°
2026-04-20 11:54 14.92830 83.73317 23772 ft 330 kts 298°
2026-04-20 11:55 14.93970 83.71258 23772 ft 330 kts 298°
2026-04-20 11:55 14.95108 83.69204 23770 ft 330 kts 298°
2026-04-20 11:55 14.96250 83.67142 23771 ft 330 kts 298°
2026-04-20 11:55 14.97387 83.65085 23771 ft 329 kts 298°
2026-04-20 11:56 14.98524 83.63030 23772 ft 329 kts 298°
2026-04-20 11:56 14.99662 83.60972 23771 ft 329 kts 298°
2026-04-20 11:56 15.00798 83.58916 23771 ft 329 kts 298°
2026-04-20 11:56 15.01936 83.56858 23771 ft 329 kts 298°
2026-04-20 11:57 15.03071 83.54804 23770 ft 329 kts 298°
2026-04-20 11:57 15.04206 83.52748 23770 ft 329 kts 298°
2026-04-20 11:57 15.05343 83.50689 23770 ft 329 kts 298°
2026-04-20 11:57 15.06477 83.48636 23770 ft 328 kts 298°
2026-04-20 11:58 15.07615 83.46573 23771 ft 328 kts 298°
2026-04-20 11:58 15.08733 83.44546 23772 ft 328 kts 298°
2026-04-20 11:58 15.09867 83.42492 23771 ft 328 kts 298°
2026-04-20 11:58 15.10998 83.40439 23770 ft 328 kts 298°
2026-04-20 11:59 15.12130 83.38387 23771 ft 328 kts 298°
2026-04-20 11:59 15.13257 83.36341 23769 ft 328 kts 298°
2026-04-20 11:59 15.14388 83.34289 23771 ft 328 kts 298°
2026-04-20 11:59 15.15519 83.32236 23770 ft 328 kts 298°
2026-04-20 12:00 15.16650 83.30182 23771 ft 328 kts 298°
2026-04-20 12:00 15.17785 83.28120 23771 ft 328 kts 298°
2026-04-20 12:00 15.18911 83.26075 23771 ft 327 kts 298°
2026-04-20 12:00 15.20023 83.24053 23771 ft 327 kts 298°
2026-04-20 12:01 15.21162 83.21982 23770 ft 327 kts 298°
2026-04-20 12:01 15.22273 83.19962 23773 ft 327 kts 298°
2026-04-20 12:01 15.23402 83.17909 23781 ft 327 kts 298°
2026-04-20 12:01 15.24527 83.15861 23782 ft 327 kts 298°
2026-04-20 12:02 15.25651 83.13816 23780 ft 327 kts 298°
2026-04-20 12:02 15.26777 83.11767 23780 ft 327 kts 298°
2026-04-20 12:02 15.27902 83.09718 23781 ft 327 kts 298°
2026-04-20 12:02 15.29025 83.07671 23778 ft 327 kts 298°
2026-04-20 12:03 15.30148 83.05625 23780 ft 326 kts 298°
2026-04-20 12:03 15.31271 83.03580 23779 ft 326 kts 298°
2026-04-20 12:03 15.32372 83.01570 23780 ft 326 kts 298°
2026-04-20 12:03 15.33493 82.99526 23780 ft 326 kts 298°
2026-04-20 12:04 15.34614 82.97482 23778 ft 326 kts 298°
2026-04-20 12:04 15.35734 82.95438 23779 ft 326 kts 298°
2026-04-20 12:04 15.36855 82.93394 23772 ft 326 kts 298°
2026-04-20 12:04 15.37973 82.91352 23770 ft 326 kts 298°
2026-04-20 12:05 15.39090 82.89314 23771 ft 325 kts 298°
2026-04-20 12:05 15.40208 82.87271 23769 ft 325 kts 298°
2026-04-20 12:05 15.41326 82.85228 23772 ft 325 kts 298°
2026-04-20 12:05 15.42419 82.83204 23771 ft 325 kts 297°
2026-04-20 12:06 15.43511 82.81150 23771 ft 325 kts 297°
2026-04-20 12:06 15.44610 82.79100 23771 ft 325 kts 297°
2026-04-20 12:06 15.45713 82.77052 23770 ft 325 kts 297°
2026-04-20 12:06 15.46814 82.75011 23772 ft 325 kts 297°
2026-04-20 12:07 15.47922 82.72961 23771 ft 325 kts 297°
2026-04-20 12:07 15.49014 82.70941 23771 ft 324 kts 297°
2026-04-20 12:07 15.50104 82.68924 23770 ft 324 kts 297°
2026-04-20 12:07 15.51205 82.66887 23772 ft 324 kts 297°
2026-04-20 12:08 15.52285 82.64887 23771 ft 324 kts 297°
2026-04-20 12:08 15.53386 82.62848 23771 ft 324 kts 297°
2026-04-20 12:08 15.54487 82.60809 23771 ft 324 kts 298°
2026-04-20 12:08 15.55586 82.58771 23772 ft 324 kts 298°
2026-04-20 12:09 15.56688 82.56730 23771 ft 324 kts 298°
2026-04-20 12:09 15.57785 82.54695 23771 ft 323 kts 298°
2026-04-20 12:09 15.58882 82.52661 23772 ft 323 kts 298°
2026-04-20 12:09 15.59981 82.50623 23770 ft 323 kts 298°
2026-04-20 12:10 15.61075 82.48591 23770 ft 323 kts 298°
2026-04-20 12:10 15.62172 82.46556 23770 ft 323 kts 298°
2026-04-20 12:10 15.63268 82.44520 23771 ft 323 kts 298°
2026-04-20 12:10 15.64365 82.42483 23771 ft 323 kts 298°
2026-04-20 12:11 15.65444 82.40476 23771 ft 322 kts 298°
2026-04-20 12:11 15.66544 82.38431 23770 ft 323 kts 298°
2026-04-20 12:11 15.67639 82.36396 23770 ft 322 kts 298°
2026-04-20 12:11 15.68745 82.34364 23772 ft 322 kts 298°
2026-04-20 12:12 15.69851 82.32343 23771 ft 322 kts 298°
2026-04-20 12:12 15.70958 82.30320 23772 ft 322 kts 298°
2026-04-20 12:12 15.72066 82.28295 23771 ft 322 kts 298°
2026-04-20 12:12 15.73172 82.26271 23770 ft 322 kts 298°
2026-04-20 12:13 15.74281 82.24244 23771 ft 322 kts 298°
2026-04-20 12:13 15.75387 82.22220 23770 ft 322 kts 298°
2026-04-20 12:13 15.76491 82.20199 23771 ft 322 kts 298°
2026-04-20 12:13 15.77594 82.18180 23771 ft 322 kts 298°
2026-04-20 12:14 15.78698 82.16159 23770 ft 322 kts 298°
2026-04-20 12:14 15.79791 82.14156 23771 ft 322 kts 298°
2026-04-20 12:14 15.80896 82.12131 23770 ft 322 kts 298°
2026-04-20 12:14 15.82000 82.10108 23772 ft 322 kts 298°
2026-04-20 12:15 15.83096 82.08100 23771 ft 322 kts 298°
2026-04-20 12:15 15.84199 82.06076 23772 ft 322 kts 298°
2026-04-20 12:15 15.85302 82.04054 23771 ft 322 kts 298°
2026-04-20 12:15 15.86440 82.02039 23771 ft 322 kts 300°
2026-04-20 12:16 15.87590 82.00039 23771 ft 322 kts 300°
2026-04-20 12:16 15.88734 81.98048 23772 ft 322 kts 300°
2026-04-20 12:16 15.89881 81.96047 23770 ft 322 kts 300°
2026-04-20 12:16 15.91012 81.94072 23771 ft 322 kts 300°
2026-04-20 12:17 15.92156 81.92075 23767 ft 322 kts 300°
2026-04-20 12:17 15.93302 81.90073 23761 ft 322 kts 300°
2026-04-20 12:17 15.94447 81.88071 23760 ft 321 kts 300°
2026-04-20 12:17 15.95591 81.86071 23763 ft 322 kts 300°
2026-04-20 12:18 15.96734 81.84071 23762 ft 322 kts 300°
2026-04-20 12:18 15.97880 81.82069 23762 ft 322 kts 300°
2026-04-20 12:18 15.99006 81.80098 23762 ft 322 kts 300°
2026-04-20 12:18 16.00168 81.78064 23762 ft 322 kts 300°
2026-04-20 12:19 16.01289 81.76101 23761 ft 322 kts 300°
2026-04-20 12:19 16.02414 81.74132 23761 ft 322 kts 299°
2026-04-20 12:19 16.03552 81.72139 23762 ft 322 kts 299°
2026-04-20 12:19 16.04698 81.70130 23761 ft 322 kts 299°
2026-04-20 12:20 16.05840 81.68129 23761 ft 321 kts 299°
2026-04-20 12:20 16.06982 81.66126 23762 ft 322 kts 299°
2026-04-20 12:20 16.08123 81.64126 23765 ft 320 kts 300°
2026-04-20 12:20 16.09256 81.62138 23771 ft 319 kts 300°
2026-04-20 12:21 16.10391 81.60147 23772 ft 319 kts 300°
2026-04-20 12:21 16.11507 81.58186 23772 ft 318 kts 300°
2026-04-20 12:21 16.12637 81.56202 23771 ft 319 kts 300°
2026-04-20 12:21 16.13767 81.54216 23775 ft 318 kts 300°
2026-04-20 12:22 16.14901 81.52225 23782 ft 319 kts 300°
2026-04-20 12:22 16.16014 81.50268 23780 ft 319 kts 300°
2026-04-20 12:22 16.17150 81.48273 23781 ft 319 kts 300°
2026-04-20 12:22 16.18292 81.46264 23782 ft 319 kts 300°
2026-04-20 12:23 16.19423 81.44274 23778 ft 319 kts 300°
2026-04-20 12:23 16.20171 81.42959 23779 ft 319 kts 300°
2026-04-20 12:23 16.21671 81.40320 23780 ft 319 kts 300°
2026-04-20 12:23 16.22800 81.38332 23780 ft 319 kts 299°
2026-04-20 12:24 16.23929 81.36344 23779 ft 319 kts 299°
2026-04-20 12:24 16.25059 81.34354 23779 ft 319 kts 299°
2026-04-20 12:24 16.25811 81.33029 23778 ft 319 kts 299°
2026-04-20 12:24 16.26944 81.31031 23782 ft 319 kts 299°
2026-04-20 12:25 16.28077 81.29033 23780 ft 319 kts 299°
2026-04-20 12:25 16.29206 81.27043 23783 ft 320 kts 299°
2026-04-20 12:25 16.30337 81.25049 23781 ft 319 kts 299°
2026-04-20 12:25 16.31448 81.23089 23780 ft 319 kts 299°
2026-04-20 12:26 16.32588 81.21077 23781 ft 319 kts 299°
2026-04-20 12:26 16.33701 81.19112 23783 ft 319 kts 299°
2026-04-20 12:26 16.34820 81.17135 23777 ft 319 kts 299°
2026-04-20 12:26 16.35944 81.15150 23779 ft 319 kts 299°
2026-04-20 12:27 16.37075 81.13151 23780 ft 319 kts 299°
2026-04-20 12:27 16.38206 81.11153 23780 ft 320 kts 299°
2026-04-20 12:27 16.39334 81.09157 23780 ft 320 kts 299°
2026-04-20 12:27 16.40463 81.07163 23781 ft 319 kts 299°
2026-04-20 12:28 16.41588 81.05172 23782 ft 320 kts 299°
2026-04-20 12:28 16.42718 81.03172 23785 ft 319 kts 299°
2026-04-20 12:28 16.43845 81.01178 23794 ft 319 kts 299°
2026-04-20 12:28 16.44972 80.99181 23786 ft 319 kts 299°
2026-04-20 12:29 16.46097 80.97186 23793 ft 319 kts 298°
2026-04-20 12:29 16.47223 80.95193 23789 ft 319 kts 299°
2026-04-20 12:29 16.48342 80.93211 23793 ft 319 kts 298°
2026-04-20 12:29 16.49458 80.91233 23793 ft 319 kts 298°
2026-04-20 12:30 16.50583 80.89239 23788 ft 319 kts 298°
2026-04-20 12:30 16.51712 80.87236 23789 ft 319 kts 298°
2026-04-20 12:30 16.52811 80.85239 23788 ft 319 kts 295°
2026-04-20 12:30 16.53697 80.83169 23787 ft 318 kts 289°
2026-04-20 12:31 16.54415 80.80992 23795 ft 318 kts 286°
2026-04-20 12:31 16.55069 80.78791 23786 ft 317 kts 285°
2026-04-20 12:31 16.55707 80.76591 23787 ft 318 kts 285°
2026-04-20 12:31 16.56339 80.74380 23787 ft 318 kts 285°
2026-04-20 12:32 16.56965 80.72170 23790 ft 317 kts 285°
2026-04-20 12:32 16.57588 80.69964 23788 ft 317 kts 285°
2026-04-20 12:32 16.58209 80.67756 23785 ft 317 kts 285°
2026-04-20 12:32 16.58821 80.65581 23791 ft 317 kts 285°
2026-04-20 12:33 16.59441 80.63373 23792 ft 317 kts 285°
2026-04-20 12:33 16.60060 80.61167 23788 ft 317 kts 285°
2026-04-20 12:33 16.60679 80.58956 23792 ft 317 kts 285°
2026-04-20 12:33 16.61299 80.56746 23787 ft 317 kts 285°
2026-04-20 12:34 16.61917 80.54538 23788 ft 317 kts 285°
2026-04-20 12:34 16.62535 80.52328 23783 ft 317 kts 284°
2026-04-20 12:34 16.63155 80.50115 23793 ft 317 kts 284°
2026-04-20 12:34 16.63765 80.47934 23788 ft 317 kts 284°
2026-04-20 12:35 16.64390 80.45695 23791 ft 317 kts 284°
2026-04-20 12:35 16.65000 80.43512 23794 ft 317 kts 284°
2026-04-20 12:35 16.65617 80.41303 23792 ft 317 kts 284°
2026-04-20 12:35 16.66234 80.39095 23789 ft 317 kts 284°
2026-04-20 12:36 16.66850 80.36885 23786 ft 317 kts 284°
2026-04-20 12:36 16.67467 80.34672 23788 ft 318 kts 284°
2026-04-20 12:36 16.68084 80.32458 23792 ft 317 kts 284°
2026-04-20 12:36 16.68701 80.30245 23793 ft 317 kts 284°
2026-04-20 12:37 16.69313 80.28047 23793 ft 317 kts 284°
2026-04-20 12:37 16.69928 80.25837 23790 ft 317 kts 284°
2026-04-20 12:37 16.70545 80.23619 23790 ft 317 kts 284°
2026-04-20 12:37 16.71159 80.21411 23791 ft 317 kts 284°
2026-04-20 12:38 16.71774 80.19199 23798 ft 317 kts 284°
2026-04-20 12:38 16.72388 80.16988 23797 ft 318 kts 284°
2026-04-20 12:38 16.73004 80.14770 23802 ft 318 kts 284°
2026-04-20 12:38 16.73611 80.12583 23794 ft 317 kts 284°
2026-04-20 12:39 16.74847 80.08124 23800 ft 318 kts 284°
2026-04-20 12:39 16.75454 80.05938 23800 ft 317 kts 284°
2026-04-20 12:39 16.76063 80.03737 23793 ft 316 kts 284°
2026-04-20 12:40 16.76676 80.01524 23800 ft 317 kts 284°
2026-04-20 12:40 16.77288 79.99316 23798 ft 317 kts 284°
2026-04-20 12:40 16.77896 79.97113 23810 ft 316 kts 284°
2026-04-20 12:40 16.78507 79.94904 23798 ft 316 kts 284°
2026-04-20 12:41 16.79117 79.92699 23811 ft 315 kts 284°
2026-04-20 12:41 16.79726 79.90496 23811 ft 315 kts 284°
2026-04-20 12:41 16.80335 79.88292 23800 ft 316 kts 284°
2026-04-20 12:41 16.80942 79.86088 23813 ft 315 kts 284°
2026-04-20 12:42 16.81550 79.83889 23802 ft 316 kts 284°
2026-04-20 12:42 16.82150 79.81714 23819 ft 315 kts 284°
2026-04-20 12:42 16.82758 79.79508 23817 ft 315 kts 284°
2026-04-20 12:42 16.83364 79.77305 23816 ft 315 kts 284°
2026-04-20 12:43 16.83970 79.75107 23819 ft 316 kts 284°
2026-04-20 12:43 16.84582 79.72880 23819 ft 317 kts 284°
2026-04-20 12:43 16.85184 79.70693 23816 ft 318 kts 284°
2026-04-20 12:43 16.85794 79.68474 23821 ft 319 kts 284°
2026-04-20 12:44 16.86400 79.66270 23830 ft 319 kts 284°
2026-04-20 12:44 16.87014 79.64039 23827 ft 320 kts 284°
2026-04-20 12:44 16.87627 79.61803 23829 ft 320 kts 284°
2026-04-20 12:44 16.88242 79.59566 23826 ft 321 kts 284°
2026-04-20 12:45 16.88847 79.57355 23825 ft 321 kts 284°
2026-04-20 12:45 16.89462 79.55112 23828 ft 322 kts 284°
2026-04-20 12:45 16.90078 79.52867 23834 ft 321 kts 284°
2026-04-20 12:45 16.90693 79.50623 23837 ft 321 kts 284°
2026-04-20 12:46 16.91310 79.48372 23839 ft 322 kts 284°
2026-04-20 12:46 16.91925 79.46128 23838 ft 322 kts 284°
2026-04-20 12:46 16.92540 79.43876 23836 ft 322 kts 284°
2026-04-20 12:46 16.93154 79.41632 23843 ft 322 kts 284°
2026-04-20 12:47 16.93771 79.39377 23847 ft 322 kts 284°
2026-04-20 12:47 16.94383 79.37135 23845 ft 322 kts 284°
2026-04-20 12:47 16.94998 79.34883 23845 ft 322 kts 284°
2026-04-20 12:47 16.95604 79.32662 23846 ft 322 kts 284°
2026-04-20 12:48 16.96217 79.30415 23849 ft 322 kts 283°
2026-04-20 12:48 16.96852 79.28174 23855 ft 322 kts 285°
2026-04-20 12:48 16.97516 79.25942 23854 ft 322 kts 285°
2026-04-20 12:48 16.98184 79.23708 23854 ft 322 kts 285°
2026-04-20 12:49 16.98856 79.21468 23859 ft 322 kts 285°
2026-04-20 12:49 16.99526 79.19235 23856 ft 322 kts 285°
2026-04-20 12:49 17.00198 79.17000 23861 ft 322 kts 285°
2026-04-20 12:49 17.00867 79.14771 23864 ft 322 kts 285°
2026-04-20 12:50 17.01538 79.12535 23866 ft 322 kts 285°
2026-04-20 12:50 17.02209 79.10302 23864 ft 322 kts 285°
2026-04-20 12:50 17.02878 79.08070 23864 ft 322 kts 285°
2026-04-20 12:50 17.03534 79.05884 23868 ft 322 kts 285°
2026-04-20 12:51 17.04202 79.03654 23873 ft 321 kts 285°
2026-04-20 12:51 17.04868 79.01428 23874 ft 321 kts 285°
2026-04-20 12:51 17.05535 78.99199 23873 ft 321 kts 285°
2026-04-20 12:51 17.06203 78.96965 23872 ft 321 kts 285°
2026-04-20 12:52 17.06870 78.94735 23877 ft 321 kts 285°
2026-04-20 12:52 17.07536 78.92507 23882 ft 321 kts 285°
2026-04-20 12:52 17.08202 78.90278 23882 ft 321 kts 285°
2026-04-20 12:52 17.08868 78.88047 23882 ft 321 kts 285°
2026-04-20 12:53 17.09534 78.85816 23882 ft 321 kts 285°
2026-04-20 12:53 17.10199 78.83585 23883 ft 321 kts 285°
2026-04-20 12:53 17.10865 78.81353 23883 ft 321 kts 284°
2026-04-20 12:53 17.11529 78.79125 23882 ft 321 kts 285°
2026-04-20 12:54 17.12175 78.76957 23894 ft 320 kts 284°
2026-04-20 12:54 17.12844 78.74707 23894 ft 320 kts 284°
2026-04-20 12:54 17.13506 78.72482 23891 ft 320 kts 284°
2026-04-20 12:54 17.14160 78.70288 23891 ft 320 kts 284°
2026-04-20 12:55 17.14830 78.68033 23891 ft 321 kts 284°
2026-04-20 12:55 17.15482 78.65838 23891 ft 321 kts 284°
2026-04-20 12:55 17.16144 78.63609 23892 ft 321 kts 284°
2026-04-20 12:55 17.16807 78.61377 23893 ft 321 kts 284°
2026-04-20 12:56 17.17468 78.59150 23891 ft 320 kts 284°
2026-04-20 12:56 17.18129 78.56921 23891 ft 320 kts 284°
2026-04-20 12:56 17.18788 78.54697 23892 ft 320 kts 284°
2026-04-20 12:56 17.19450 78.52465 23892 ft 320 kts 284°
2026-04-20 12:57 17.20108 78.50242 23897 ft 320 kts 284°
2026-04-20 12:57 17.20766 78.48020 23903 ft 320 kts 284°
2026-04-20 12:57 17.21423 78.45798 23902 ft 320 kts 284°
2026-04-20 12:57 17.22082 78.43573 23900 ft 320 kts 284°
2026-04-20 12:58 17.22618 78.41361 23902 ft 318 kts 278°
2026-04-20 12:58 17.22934 78.39080 23902 ft 317 kts 274°
2026-04-20 12:58 17.23116 78.36782 23900 ft 317 kts 272°
2026-04-20 12:58 17.23273 78.34476 23901 ft 317 kts 272°
2026-04-20 12:59 17.23417 78.32175 23900 ft 317 kts 271°
2026-04-20 12:59 17.23554 78.29876 23902 ft 317 kts 271°
2026-04-20 12:59 17.23688 78.27574 23893 ft 317 kts 271°
2026-04-20 12:59 17.23819 78.25272 23891 ft 317 kts 271°
2026-04-20 13:00 17.23948 78.22974 23891 ft 317 kts 271°
2026-04-20 13:00 17.24077 78.20672 23892 ft 317 kts 271°
2026-04-20 13:00 17.24205 78.18372 23893 ft 317 kts 271°
2026-04-20 13:00 17.24333 78.16071 23891 ft 317 kts 271°
2026-04-20 13:01 17.24459 78.13798 23892 ft 317 kts 271°
2026-04-20 13:01 17.24585 78.11498 23892 ft 317 kts 271°
2026-04-20 13:01 17.24712 78.09198 23892 ft 317 kts 271°
2026-04-20 13:01 17.24839 78.06887 23891 ft 317 kts 271°
2026-04-20 13:02 17.24965 78.04582 23892 ft 317 kts 271°
2026-04-20 13:02 17.25091 78.02279 23892 ft 317 kts 271°
2026-04-20 13:02 17.25217 77.99976 23891 ft 317 kts 271°
2026-04-20 13:02 17.25343 77.97671 23892 ft 317 kts 271°
2026-04-20 13:03 17.25467 77.95373 23892 ft 317 kts 271°
2026-04-20 13:03 17.25592 77.93070 23894 ft 317 kts 271°
2026-04-20 13:03 17.25717 77.90761 23891 ft 317 kts 271°
2026-04-20 13:03 17.25842 77.88453 23891 ft 318 kts 271°
2026-04-20 13:04 17.25966 77.86144 23894 ft 318 kts 271°
2026-04-20 13:04 17.26089 77.83867 23886 ft 318 kts 271°
2026-04-20 13:04 17.26213 77.81557 23880 ft 318 kts 271°
2026-04-20 13:04 17.26336 77.79242 23882 ft 318 kts 271°
2026-04-20 13:05 17.26460 77.76934 23886 ft 318 kts 271°
2026-04-20 13:05 17.26581 77.74654 23885 ft 318 kts 271°
2026-04-20 13:05 17.26704 77.72346 23882 ft 318 kts 271°
2026-04-20 13:05 17.26826 77.70033 23881 ft 318 kts 271°
2026-04-20 13:06 17.26949 77.67722 23878 ft 318 kts 271°
2026-04-20 13:06 17.27071 77.65408 23873 ft 318 kts 271°
2026-04-20 13:06 17.27193 77.63091 23873 ft 318 kts 271°
2026-04-20 13:06 17.27314 77.60782 23874 ft 318 kts 271°
2026-04-20 13:07 17.27436 77.58465 23873 ft 318 kts 271°
2026-04-20 13:07 17.27516 77.56934 23873 ft 319 kts 271°
2026-04-20 13:07 17.27637 77.54620 23868 ft 319 kts 271°
2026-04-20 13:07 17.27796 77.51550 23862 ft 318 kts 271°
2026-04-20 13:08 17.27877 77.49989 23864 ft 318 kts 271°
2026-04-20 13:08 17.27998 77.47674 23865 ft 318 kts 271°
2026-04-20 13:08 17.28117 77.45365 23863 ft 318 kts 271°
2026-04-20 13:08 17.28238 77.43050 23864 ft 319 kts 271°
2026-04-20 13:09 17.28357 77.40735 23853 ft 319 kts 271°
2026-04-20 13:09 17.28476 77.38414 23854 ft 319 kts 271°
2026-04-20 13:09 17.28593 77.36125 23852 ft 319 kts 271°
2026-04-20 13:09 17.28712 77.33810 23853 ft 319 kts 271°
2026-04-20 13:10 17.28830 77.31491 23854 ft 319 kts 271°
2026-04-20 13:10 17.28948 77.29172 23856 ft 319 kts 271°
2026-04-20 13:10 17.29065 77.26862 23855 ft 319 kts 271°
2026-04-20 13:10 17.29183 77.24543 23844 ft 319 kts 271°
2026-04-20 13:11 17.29300 77.22234 23844 ft 318 kts 271°
2026-04-20 13:11 17.29416 77.19923 23848 ft 318 kts 271°
2026-04-20 13:11 17.29533 77.17609 23844 ft 318 kts 271°
2026-04-20 13:11 17.29649 77.15298 23845 ft 318 kts 271°
2026-04-20 13:12 17.29766 77.12980 23845 ft 318 kts 271°
2026-04-20 13:12 17.29881 77.10665 23844 ft 318 kts 271°
2026-04-20 13:12 17.29997 77.08346 23844 ft 318 kts 271°
2026-04-20 13:12 17.30111 77.06061 23847 ft 318 kts 271°
2026-04-20 13:13 17.30226 77.03737 23845 ft 319 kts 271°
2026-04-20 13:13 17.30341 77.01418 23845 ft 319 kts 271°
2026-04-20 13:13 17.30456 76.99099 23846 ft 319 kts 271°
2026-04-20 13:13 17.30570 76.96777 23846 ft 319 kts 271°
2026-04-20 13:14 17.30684 76.94454 23846 ft 320 kts 271°
2026-04-20 13:14 17.30798 76.92132 23845 ft 320 kts 271°
2026-04-20 13:14 17.30911 76.89810 23844 ft 319 kts 271°
2026-04-20 13:14 17.31025 76.87487 23845 ft 319 kts 271°
2026-04-20 13:15 17.31138 76.85170 23845 ft 319 kts 270°
2026-04-20 13:15 17.31261 76.82843 23843 ft 320 kts 273°
2026-04-20 13:15 17.31653 76.80574 23847 ft 323 kts 282°
2026-04-20 13:15 17.32387 76.78343 23845 ft 325 kts 289°
2026-04-20 13:16 17.33277 76.76177 23845 ft 325 kts 291°
2026-04-20 13:16 17.34211 76.74001 23845 ft 326 kts 291°
2026-04-20 13:16 17.35154 76.71860 23846 ft 326 kts 291°
2026-04-20 13:16 17.36109 76.69717 23845 ft 326 kts 292°
2026-04-20 13:17 17.37074 76.67567 23844 ft 326 kts 292°
2026-04-20 13:17 17.38031 76.65440 23846 ft 326 kts 292°
2026-04-20 13:17 17.39001 76.63287 23847 ft 326 kts 292°
2026-04-20 13:17 17.39970 76.61138 23845 ft 327 kts 292°
2026-04-20 13:18 17.40941 76.58984 23844 ft 326 kts 292°
2026-04-20 13:18 17.41911 76.56832 23845 ft 327 kts 292°
2026-04-20 13:18 17.42883 76.54677 23845 ft 327 kts 292°
2026-04-20 13:18 17.43851 76.52529 23843 ft 327 kts 292°
2026-04-20 13:19 17.44808 76.50404 23845 ft 327 kts 292°
2026-04-20 13:19 17.45780 76.48242 23845 ft 327 kts 292°
2026-04-20 13:19 17.46751 76.46084 23845 ft 327 kts 292°
2026-04-20 13:19 17.47718 76.43934 23846 ft 327 kts 292°
2026-04-20 13:20 17.48689 76.41774 23847 ft 327 kts 292°
2026-04-20 13:20 17.49660 76.39614 23844 ft 328 kts 292°
2026-04-20 13:20 17.50631 76.37451 23845 ft 327 kts 292°
2026-04-20 13:20 17.51598 76.35296 23847 ft 327 kts 292°
2026-04-20 13:21 17.52571 76.33129 23843 ft 328 kts 292°
2026-04-20 13:21 17.53530 76.30993 23847 ft 328 kts 292°
2026-04-20 13:21 17.54501 76.28828 23843 ft 328 kts 292°
2026-04-20 13:21 17.55457 76.26697 23845 ft 328 kts 292°
2026-04-20 13:22 17.56429 76.24527 23844 ft 328 kts 292°
2026-04-20 13:22 17.57399 76.22363 23845 ft 328 kts 292°
2026-04-20 13:22 17.58367 76.20203 23846 ft 328 kts 292°
2026-04-20 13:22 17.59338 76.18033 23846 ft 328 kts 291°
2026-04-20 13:23 17.60307 76.15865 23846 ft 329 kts 291°
2026-04-20 13:23 17.61278 76.13697 23844 ft 328 kts 291°
2026-04-20 13:23 17.62233 76.11558 23847 ft 328 kts 291°
2026-04-20 13:23 17.63201 76.09392 23845 ft 328 kts 291°
2026-04-20 13:24 17.64171 76.07222 23845 ft 328 kts 291°
2026-04-20 13:24 17.65142 76.05047 23845 ft 328 kts 291°
2026-04-20 13:24 17.66109 76.02880 23845 ft 328 kts 291°
2026-04-20 13:24 17.67079 76.00707 23847 ft 328 kts 291°
2026-04-20 13:25 17.68038 75.98541 23845 ft 328 kts 291°
2026-04-20 13:25 17.68993 75.96360 23845 ft 329 kts 291°
2026-04-20 13:25 17.69951 75.94181 23846 ft 329 kts 291°
2026-04-20 13:25 17.70900 75.92027 23846 ft 328 kts 291°
2026-04-20 13:26 17.71860 75.89852 23846 ft 329 kts 291°
2026-04-20 13:26 17.72815 75.87686 23845 ft 328 kts 291°
2026-04-20 13:26 17.73777 75.85505 23844 ft 329 kts 291°
2026-04-20 13:26 17.74739 75.83325 23847 ft 328 kts 291°
2026-04-20 13:27 17.75687 75.81176 23845 ft 329 kts 291°
2026-04-20 13:27 17.76638 75.79017 23845 ft 329 kts 291°
2026-04-20 13:27 17.77601 75.76832 23791 ft 331 kts 291°
2026-04-20 13:27 17.78575 75.74617 23613 ft 336 kts 291°
2026-04-20 13:28 17.79559 75.72382 23510 ft 338 kts 291°
2026-04-20 13:28 17.80549 75.70132 23458 ft 339 kts 291°
2026-04-20 13:28 17.81534 75.67897 23380 ft 333 kts 291°
2026-04-20 13:28 17.82505 75.65689 22900 ft 331 kts 291°
2026-04-20 13:29 17.83455 75.63526 22406 ft 331 kts 292°
2026-04-20 13:29 17.84417 75.61336 21921 ft 330 kts 292°
2026-04-20 13:29 17.85375 75.59157 21456 ft 328 kts 292°
2026-04-20 13:29 17.86330 75.56982 21006 ft 326 kts 292°
2026-04-20 13:30 17.87277 75.54825 20579 ft 324 kts 292°
2026-04-20 13:30 17.88219 75.52678 20153 ft 322 kts 292°
2026-04-20 13:30 17.89157 75.50539 19733 ft 321 kts 292°
2026-04-20 13:30 17.90083 75.48425 19328 ft 319 kts 293°
2026-04-20 13:31 17.91002 75.46328 18940 ft 317 kts 293°
2026-04-20 13:31 17.91924 75.44222 18545 ft 315 kts 293°
2026-04-20 13:31 17.92837 75.42134 18166 ft 314 kts 293°
2026-04-20 13:31 17.93748 75.40055 17817 ft 313 kts 294°
2026-04-20 13:32 17.94643 75.38009 17476 ft 310 kts 294°
2026-04-20 13:32 17.95542 75.35955 17138 ft 308 kts 294°
2026-04-20 13:32 17.96435 75.33913 16807 ft 306 kts 294°
2026-04-20 13:32 17.97321 75.31884 16479 ft 305 kts 294°
2026-04-20 13:33 17.98202 75.29870 16162 ft 303 kts 294°
2026-04-20 13:33 17.99075 75.27869 15855 ft 301 kts 294°
2026-04-20 13:33 17.99945 75.25875 15526 ft 296 kts 294°
2026-04-20 13:33 18.00797 75.23927 14854 ft 289 kts 294°
2026-04-20 13:34 18.01632 75.22012 14065 ft 288 kts 294°
2026-04-20 13:34 18.02457 75.20124 13314 ft 286 kts 295°
2026-04-20 13:34 18.03278 75.18240 12575 ft 282 kts 295°
2026-04-20 13:34 18.04092 75.16375 11831 ft 279 kts 295°
2026-04-20 13:35 18.04893 75.14534 11101 ft 276 kts 295°
2026-04-20 13:35 18.05688 75.12706 10340 ft 274 kts 295°
2026-04-20 13:35 18.06479 75.10892 9571 ft 273 kts 295°
2026-04-20 13:35 18.07265 75.09086 8821 ft 271 kts 295°
2026-04-20 13:36 18.08047 75.07291 8072 ft 269 kts 295°
2026-04-20 13:36 18.08821 75.05512 7334 ft 266 kts 294°
2026-04-20 13:36 18.09585 75.03753 6597 ft 264 kts 294°
2026-04-20 13:36 18.10346 75.02003 6115 ft 266 kts 294°
2026-04-20 13:37 18.11148 75.00151 6036 ft 291 kts 294°
2026-04-20 13:37 18.11995 74.98201 6426 ft 281 kts 294°
2026-04-20 13:37 18.12785 74.96382 6499 ft 267 kts 294°
2026-04-20 13:37 18.13554 74.94611 6346 ft 265 kts 295°
2026-04-20 13:38 18.14318 74.92849 6200 ft 265 kts 295°
2026-04-20 13:38 18.15072 74.91111 6071 ft 264 kts 295°
2026-04-20 13:38 18.15835 74.89356 6028 ft 264 kts 295°
2026-04-20 13:38 18.16598 74.87595 6019 ft 264 kts 295°
2026-04-20 13:39 18.17346 74.85871 6022 ft 264 kts 295°
2026-04-20 13:39 18.18114 74.84103 6024 ft 265 kts 295°
2026-04-20 13:39 18.18874 74.82345 6032 ft 265 kts 295°
2026-04-20 13:39 18.19638 74.80578 6032 ft 264 kts 295°
2026-04-20 13:40 18.20402 74.78815 6032 ft 264 kts 295°
2026-04-20 13:40 18.21156 74.77075 6030 ft 264 kts 295°
2026-04-20 13:40 18.21921 74.75306 6032 ft 265 kts 295°
2026-04-20 13:40 18.22682 74.73545 6031 ft 265 kts 295°
2026-04-20 13:41 18.23445 74.71781 6032 ft 265 kts 295°
2026-04-20 13:41 18.24210 74.70008 6033 ft 265 kts 295°
2026-04-20 13:41 18.24969 74.68241 6030 ft 265 kts 295°
2026-04-20 13:41 18.25731 74.66479 6032 ft 265 kts 295°
2026-04-20 13:42 18.26499 74.64712 6028 ft 265 kts 295°
2026-04-20 13:42 18.28031 74.61212 6033 ft 265 kts 295°
2026-04-20 13:42 18.28804 74.59444 6032 ft 265 kts 295°
2026-04-20 13:43 18.29575 74.57681 6032 ft 265 kts 295°
2026-04-20 13:43 18.30326 74.55962 6022 ft 246 kts 295°
2026-04-20 13:43 18.31032 74.54345 6024 ft 242 kts 295°
2026-04-20 13:43 18.31738 74.52729 6035 ft 243 kts 295°
2026-04-20 13:44 18.32445 74.51112 6134 ft 241 kts 295°
2026-04-20 13:44 18.33142 74.49518 5977 ft 238 kts 295°
2026-04-20 13:44 18.33838 74.47929 5725 ft 236 kts 296°
2026-04-20 13:44 18.34507 74.46398 5198 ft 233 kts 295°
2026-04-20 13:45 18.35191 74.44832 4548 ft 235 kts 295°
2026-04-20 13:45 18.35865 74.43283 4108 ft 227 kts 295°
2026-04-20 13:45 18.36501 74.41827 4036 ft 221 kts 296°
2026-04-20 13:45 18.37189 74.40258 4048 ft 247 kts 296°
2026-04-20 13:46 18.37913 74.38598 4043 ft 248 kts 295°
2026-04-20 13:46 18.38630 74.36948 4038 ft 247 kts 295°
2026-04-20 13:46 18.39354 74.35294 4041 ft 248 kts 296°
2026-04-20 13:46 18.40073 74.33648 4025 ft 248 kts 295°
2026-04-20 13:47 18.40794 74.31993 4022 ft 249 kts 295°
2026-04-20 13:47 18.41502 74.30361 4023 ft 248 kts 295°
2026-04-20 13:47 18.42222 74.28707 4021 ft 248 kts 295°
2026-04-20 13:47 18.42942 74.27052 4025 ft 248 kts 295°
2026-04-20 13:48 18.43653 74.25414 4028 ft 248 kts 295°
2026-04-20 13:48 18.44372 74.23761 4026 ft 248 kts 295°
2026-04-20 13:48 18.45093 74.22105 4023 ft 248 kts 295°
2026-04-20 13:48 18.45813 74.20451 4025 ft 248 kts 295°
2026-04-20 13:49 18.46530 74.18794 4022 ft 248 kts 295°
2026-04-20 13:49 18.47238 74.17161 4028 ft 248 kts 295°
2026-04-20 13:49 18.47955 74.15508 4023 ft 248 kts 295°
2026-04-20 13:49 18.48672 74.13858 4019 ft 248 kts 295°
2026-04-20 13:50 18.49383 74.12222 4018 ft 236 kts 295°
2026-04-20 13:50 18.50024 74.10742 4006 ft 208 kts 295°
2026-04-20 13:50 18.50615 74.09380 4025 ft 204 kts 296°
2026-04-20 13:50 18.51206 74.08022 4026 ft 203 kts 296°
2026-04-20 13:51 18.51602 74.07107 4022 ft 203 kts 295°
2026-04-20 13:51 18.52185 74.05753 4033 ft 203 kts 295°
2026-04-20 13:51 18.52773 74.04395 4031 ft 203 kts 296°
2026-04-20 13:51 18.53362 74.03039 4022 ft 203 kts 296°
2026-04-20 13:52 18.53950 74.01683 4019 ft 203 kts 296°
2026-04-20 13:52 18.54529 74.00347 4007 ft 203 kts 295°
2026-04-20 13:52 18.55170 73.99000 3790 ft 200 kts 308°
2026-04-20 13:52 18.56176 73.98093 3573 ft 181 kts 329°
2026-04-20 13:53 18.57134 73.97260 3216 ft 177 kts 316°
2026-04-20 13:53 18.57916 73.96277 2738 ft 174 kts 306°
2026-04-20 13:53 18.58245 73.95154 2472 ft 164 kts 265°
2026-04-20 13:53 18.58136 73.94006 2202 ft 152 kts 270°
2026-04-20 13:54 18.58168 73.92953 1965 ft 135 kts 274°
2026-04-20 13:54 18.58213 73.92217 1948 ft 56 kts 275°
2026-04-20 13:54 18.58220 73.92032 1948 ft 12 kts 270°
2026-04-20 13:54 18.58197 73.91979 1948 ft 5 kts 204°
2026-04-20 13:55 18.58170 73.91972 1948 ft 2 kts 189°
2026-04-20 13:55 18.58138 73.91968 1948 ft 7 kts 184°
2026-04-20 13:55 18.58092 73.91967 1948 ft 6 kts 181°
2026-04-20 13:55 18.58046 73.91982 1948 ft 9 kts 143°
2026-04-20 13:56 18.58036 73.92003 1948 ft 0 kts 79°